M I D A S
Marine Information and Data Acquisition System
Tripno 1267 of the Zeeleeuw from 2007-05-04 07:37:53 to 2007-05-04 14:16:29
Back to CruiseResearch ActivitiesStationsMapUnderway DataData graphs

EquipmentUnitsComment
TimeDGPSUTC
LatitudeDGPSDM.mWGS84
LongitudeDGPSDM.mWGS84
TemperatureSBE03/SBE38deg celciusITS90
ConductivitySBE21S/mITS90
SalinitySBE21 Practical Salinity Units
ChlorophylAChelsea fluorimeterg/lCalibrated in Aceton
Missing or incorrect values are displayed as -999
Sea surface data collected by the RV Zeeleeuw from 2007-05-04 06:54:01 to 2007-05-04 14:28:36
                                                                                    Next 1000 lines
Time Latitude Longitude Temperature Conductivity Salinity ChlorophylA
2007-05-04 06:54:11 51°13.581 2°56.133 20.5139 0.015075 0.078453 -2.871232
2007-05-04 06:54:16 51°13.581 2°56.133 20.5592 0.015075 0.078453 -2.871232
2007-05-04 06:54:21 51°13.581 2°56.133 20.5647 0.015075 0.078453 -2.871232
2007-05-04 06:54:26 51°13.581 2°56.133 20.6353 0.015075 0.078453 -2.871232
2007-05-04 06:54:32 51°13.581 2°56.133 20.5995 0.015075 0.078453 -2.871232
2007-05-04 06:54:36 51°13.58 2°56.133 20.5951 0.015075 0.078453 -2.871232
2007-05-04 06:54:41 51°13.58 2°56.133 20.5888 0.015075 0.078453 -2.871232
2007-05-04 06:54:46 51°13.58 2°56.133 20.5831 0.015075 0.078453 -2.871232
2007-05-04 06:54:51 51°13.58 2°56.133 20.5846 0.015075 0.078452 -2.871232
2007-05-04 06:54:56 51°13.58 2°56.133 20.5837 0.015075 0.078452 -2.871232
2007-05-04 06:55:01 51°13.581 2°56.133 20.5861 0.015075 0.078452 -2.871232
2007-05-04 06:55:06 51°13.581 2°56.133 20.5888 0.015075 0.078453 -2.871232
2007-05-04 06:55:11 51°13.581 2°56.133 20.5904 0.015075 0.078452 -2.871232
2007-05-04 06:55:16 51°13.581 2°56.133 20.5911 0.015075 0.078452 -2.871232
2007-05-04 06:55:21 51°13.581 2°56.133 20.5928 0.015075 0.078452 -2.871232
2007-05-04 06:55:26 51°13.581 2°56.133 20.5938 0.015075 0.078452 -2.871232
2007-05-04 06:55:32 51°13.581 2°56.133 20.5949 0.015075 0.078452 -2.871232
2007-05-04 06:55:36 51°13.581 2°56.133 20.5959 0.015075 0.078452 -2.871232
2007-05-04 06:55:42 51°13.581 2°56.133 20.597 0.015075 0.078452 -2.871232
2007-05-04 06:55:46 51°13.581 2°56.133 20.5968 0.015075 0.078452 -2.871232
2007-05-04 06:55:51 51°13.581 2°56.134 20.5972 0.015075 0.078452 -2.871232
2007-05-04 06:55:56 51°13.581 2°56.134 20.5973 0.015075 0.078452 -2.871232
2007-05-04 06:56:01 51°13.581 2°56.134 20.5974 0.015075 0.078452 -2.871232
2007-05-04 06:56:06 51°13.58 2°56.133 20.5984 0.015075 0.078452 -2.871232
2007-05-04 06:56:11 51°13.58 2°56.133 20.5983 0.015075 0.078452 -2.871232
2007-05-04 06:56:16 51°13.58 2°56.133 20.5987 0.015075 0.078452 -2.871232
2007-05-04 06:56:21 51°13.58 2°56.133 20.5996 0.015075 0.078452 -2.871232
2007-05-04 06:56:26 51°13.58 2°56.133 20.6008 0.015075 0.078452 -2.871232
2007-05-04 06:56:32 51°13.58 2°56.133 20.6002 0.015075 0.078452 -2.871232
2007-05-04 06:56:36 51°13.58 2°56.133 20.6002 0.015075 0.078452 -2.871232
2007-05-04 06:56:41 51°13.58 2°56.133 20.6002 0.015075 0.078452 -2.871232
2007-05-04 06:56:46 51°13.58 2°56.132 20.5999 0.015075 0.078452 -2.871232
2007-05-04 06:56:51 51°13.58 2°56.132 20.5865 0.015075 0.078452 -2.871232
2007-05-04 06:56:56 51°13.581 2°56.13 20.5539 0.015075 0.078452 -2.871232
2007-05-04 06:57:01 51°13.581 2°56.128 20.611 0.015075 0.078452 -2.871232
2007-05-04 06:57:06 51°13.582 2°56.125 20.6043 0.015075 0.078452 -2.871232
2007-05-04 06:57:11 51°13.583 2°56.121 20.5861 0.015075 0.078452 -2.871232
2007-05-04 06:57:16 51°13.584 2°56.117 20.6033 0.015075 0.078452 -2.871232
2007-05-04 06:57:21 51°13.585 2°56.113 20.61 0.015075 0.078452 -2.871232
2007-05-04 06:57:26 51°13.587 2°56.109 20.6082 0.015075 0.078452 -2.871232
2007-05-04 06:57:32 51°13.588 2°56.104 20.6014 0.015075 0.078452 -2.871232
2007-05-04 06:57:36 51°13.589 2°56.1 20.5965 0.015075 0.078451 -2.871232
2007-05-04 06:57:42 51°13.591 2°56.094 20.5944 0.015075 0.078451 -2.871232
2007-05-04 06:57:46 51°13.592 2°56.09 20.6003 0.015075 0.078452 -2.871232
2007-05-04 06:57:51 51°13.594 2°56.085 20.6024 0.015075 0.078451 -2.871232
2007-05-04 06:57:56 51°13.596 2°56.079 20.5992 0.015075 0.078452 -2.871232
2007-05-04 06:58:01 51°13.597 2°56.074 20.6086 0.015075 0.078452 -2.871232
2007-05-04 06:58:06 51°13.599 2°56.068 20.6097 0.015075 0.078452 -2.871232
2007-05-04 06:58:11 51°13.601 2°56.062 20.6107 0.015075 0.078451 -2.871232
2007-05-04 06:58:16 51°13.602 2°56.055 20.6126 0.015075 0.078451 -2.871232
2007-05-04 06:58:21 51°13.604 2°56.049 20.6142 0.015075 0.078452 -2.871232
2007-05-04 06:58:26 51°13.606 2°56.043 20.6219 0.015075 0.078452 -2.871232
2007-05-04 06:58:32 51°13.608 2°56.035 20.6292 0.015075 0.078452 -2.871232
2007-05-04 06:58:36 51°13.609 2°56.031 20.6266 0.015075 0.078452 -2.871232
2007-05-04 06:58:42 51°13.611 2°56.024 20.6227 0.015075 0.078451 -2.871232
2007-05-04 06:58:46 51°13.613 2°56.019 20.6236 0.015075 0.078451 -2.871232
2007-05-04 06:58:51 51°13.614 2°56.013 20.6213 0.015075 0.078451 -2.871232
2007-05-04 06:58:57 51°13.616 2°56.007 20.6222 0.015075 0.078451 -2.871232
2007-05-04 06:59:01 51°13.618 2°56.003 20.623 0.015075 0.078451 -2.871232
2007-05-04 06:59:06 51°13.619 2°55.998 20.6245 0.015075 0.078451 -2.871232
2007-05-04 06:59:11 51°13.621 2°55.994 20.6248 0.015075 0.078452 -2.871232
2007-05-04 06:59:16 51°13.622 2°55.99 20.6224 0.015075 0.078451 -2.871232
2007-05-04 06:59:21 51°13.623 2°55.986 20.6191 0.015075 0.078451 -2.871232
2007-05-04 06:59:26 51°13.624 2°55.983 20.622 0.015075 0.078451 -2.871232
2007-05-04 06:59:32 51°13.625 2°55.98 20.6243 0.015075 0.078451 -2.871232
2007-05-04 06:59:36 51°13.626 2°55.979 20.625 0.015075 0.078451 -2.871232
2007-05-04 06:59:42 51°13.626 2°55.976 20.6213 0.015075 0.078451 -2.871232
2007-05-04 06:59:46 51°13.627 2°55.974 20.6208 0.015075 0.078452 -2.871232
2007-05-04 06:59:51 51°13.628 2°55.971 20.5437 0.015075 0.078452 -2.871232
2007-05-04 06:59:57 51°13.63 2°55.966 20.6165 0.015075 0.078451 -2.871232
2007-05-04 07:00:01 51°13.632 2°55.962 20.6357 0.015075 0.078451 -2.871232
2007-05-04 07:00:07 51°13.634 2°55.956 20.6335 0.015075 0.078452 -2.871232
2007-05-04 07:00:11 51°13.636 2°55.952 20.6335 0.015075 0.078452 -2.871232
2007-05-04 07:00:16 51°13.638 2°55.947 20.6267 0.015075 0.078452 -2.871232
2007-05-04 07:00:21 51°13.64 2°55.942 20.6373 0.015075 0.078452 -2.871232
2007-05-04 07:00:26 51°13.643 2°55.937 20.6352 0.015075 0.078452 -2.871232
2007-05-04 07:00:31 51°13.644 2°55.932 20.633 0.015075 0.078452 -2.871232
2007-05-04 07:00:36 51°13.646 2°55.928 20.6339 0.015075 0.078452 -2.871232
2007-05-04 07:00:41 51°13.647 2°55.925 20.6575 0.015075 0.078452 -2.871232
2007-05-04 07:00:46 51°13.647 2°55.924 20.6522 0.015075 0.078452 -2.871232
2007-05-04 07:00:51 51°13.647 2°55.923 20.6488 0.015075 0.078453 -2.871232
2007-05-04 07:00:56 51°13.648 2°55.922 20.6476 0.015075 0.078452 -2.871232
2007-05-04 07:01:01 51°13.647 2°55.922 20.6483 0.015075 0.078452 -2.871232
2007-05-04 07:01:06 51°13.647 2°55.923 20.6474 0.015075 0.078453 -2.871232
2007-05-04 07:01:11 51°13.647 2°55.923 20.6478 0.015075 0.078453 -2.871232
2007-05-04 07:01:16 51°13.647 2°55.925 20.6469 0.015075 0.078453 -2.871232
2007-05-04 07:01:21 51°13.646 2°55.926 20.6479 0.015075 0.078454 -2.871232
2007-05-04 07:01:26 51°13.646 2°55.929 20.6474 0.015075 0.078454 -2.871232
2007-05-04 07:01:32 51°13.645 2°55.932 20.6473 0.015075 0.078454 -2.871232
2007-05-04 07:01:36 51°13.644 2°55.934 20.6443 0.015075 0.078454 -2.871232
2007-05-04 07:01:41 51°13.644 2°55.936 20.6446 0.015075 0.078454 -2.871232
2007-05-04 07:01:46 51°13.643 2°55.939 20.6429 0.015075 0.078456 -2.871232
2007-05-04 07:01:51 51°13.642 2°55.942 20.6432 0.015075 0.078456 -2.871232
2007-05-04 07:01:57 51°13.642 2°55.946 20.6425 0.015075 0.078457 -2.871232
2007-05-04 07:02:01 51°13.641 2°55.949 20.6415 0.015075 0.078457 -2.871232
2007-05-04 07:02:06 51°13.641 2°55.953 20.6413 0.015075 0.078457 -2.871232
2007-05-04 07:02:11 51°13.64 2°55.956 20.6411 0.015075 0.078458 -2.871232
2007-05-04 07:02:16 51°13.64 2°55.96 20.6396 0.015075 0.078458 -2.871232
2007-05-04 07:02:21 51°13.639 2°55.964 20.6385 0.015075 0.078458 -2.871232
2007-05-04 07:02:26 51°13.639 2°55.968 20.6394 0.015075 0.078459 -2.871232
2007-05-04 07:02:31 51°13.638 2°55.972 20.6317 0.015075 0.078459 -2.871232
2007-05-04 07:02:36 51°13.638 2°55.977 20.6064 0.015075 0.078459 -2.871232
2007-05-04 07:02:42 51°13.637 2°55.982 20.6029 0.015075 0.07846 -2.871232
2007-05-04 07:02:46 51°13.637 2°55.986 20.5945 0.015075 0.07846 -2.871232
2007-05-04 07:02:51 51°13.637 2°55.99 20.5959 0.015075 0.078461 -2.871232
2007-05-04 07:02:57 51°13.636 2°55.995 20.6008 0.015075 0.078463 -2.871232
2007-05-04 07:03:01 51°13.636 2°55.998 20.6051 0.015075 0.078463 -2.871232
2007-05-04 07:03:07 51°13.635 2°56.002 20.6049 0.015075 0.078463 -2.871232
2007-05-04 07:03:11 51°13.635 2°56.005 20.6065 0.015075 0.078463 -2.871232
2007-05-04 07:03:16 51°13.634 2°56.008 20.6057 0.015075 0.078463 -2.871232
2007-05-04 07:03:21 51°13.634 2°56.012 20.6051 0.015075 0.078464 -2.871232
2007-05-04 07:03:26 51°13.633 2°56.015 20.6045 0.015075 0.078464 -2.871232
2007-05-04 07:03:31 51°13.633 2°56.017 20.5807 0.015075 0.078464 -2.871232
2007-05-04 07:03:36 51°13.633 2°56.02 20.6104 0.015075 0.078465 -2.871232
2007-05-04 07:03:41 51°13.632 2°56.021 20.6075 0.015075 0.078465 -2.871232
2007-05-04 07:03:46 51°13.632 2°56.022 20.6475 0.015075 0.078466 -2.871232
2007-05-04 07:03:51 51°13.632 2°56.023 20.6292 0.015075 0.078466 -2.871232
2007-05-04 07:03:56 51°13.632 2°56.024 20.6167 0.015075 0.078467 -2.871232
2007-05-04 07:04:01 51°13.632 2°56.024 20.5857 0.015075 0.078467 -2.871232
2007-05-04 07:04:07 51°13.632 2°56.025 20.5949 0.015075 0.078467 -2.871232
2007-05-04 07:04:11 51°13.632 2°56.025 20.5839 0.015075 0.078468 -2.871232
2007-05-04 07:04:16 51°13.632 2°56.025 20.6272 0.015075 0.07847 -2.871232
2007-05-04 07:04:21 51°13.632 2°56.025 20.6238 0.015075 0.07847 -2.871232
2007-05-04 07:04:26 51°13.632 2°56.025 20.6169 0.015075 0.078471 -2.871232
2007-05-04 07:04:32 51°13.632 2°56.025 20.6134 0.015075 0.078471 -2.871232
2007-05-04 07:04:36 51°13.632 2°56.025 20.6145 0.015075 0.078471 -2.871232
2007-05-04 07:04:41 51°13.632 2°56.025 20.6164 0.015075 0.078472 -2.871232
2007-05-04 07:04:46 51°13.632 2°56.025 20.615 0.015075 0.078472 -2.871232
2007-05-04 07:04:51 51°13.632 2°56.025 20.6161 0.015075 0.078473 -2.871232
2007-05-04 07:04:56 51°13.632 2°56.025 20.6168 0.015075 0.078473 -2.871232
2007-05-04 07:05:01 51°13.632 2°56.025 20.6177 0.015075 0.078473 -2.871232
2007-05-04 07:05:06 51°13.632 2°56.025 20.6191 0.015075 0.078474 -2.871232
2007-05-04 07:05:11 51°13.633 2°56.025 20.6188 0.015075 0.078474 -2.871232
2007-05-04 07:05:16 51°13.633 2°56.025 20.6191 0.015075 0.078475 -2.871232
2007-05-04 07:05:21 51°13.633 2°56.025 20.6177 0.015075 0.078477 -2.871232
2007-05-04 07:05:26 51°13.633 2°56.025 20.6151 0.015075 0.078477 -2.871232
2007-05-04 07:05:31 51°13.633 2°56.025 20.6093 0.015075 0.078477 -2.871232
2007-05-04 07:05:36 51°13.633 2°56.025 20.6044 0.015075 0.078477 -2.871232
2007-05-04 07:05:41 51°13.633 2°56.025 20.6058 0.015075 0.078478 -2.871232
2007-05-04 07:05:46 51°13.633 2°56.025 20.6072 0.015075 0.078478 -2.871232
2007-05-04 07:05:51 51°13.633 2°56.025 20.6087 0.015075 0.078478 -2.871232
2007-05-04 07:05:56 51°13.633 2°56.025 20.6265 0.015075 0.078479 -2.871232
2007-05-04 07:06:01 51°13.633 2°56.025 20.6358 0.015075 0.078479 -2.871232
2007-05-04 07:06:06 51°13.633 2°56.025 20.6385 0.015075 0.078479 -2.871232
2007-05-04 07:06:12 51°13.633 2°56.025 20.6394 0.015075 0.07848 -2.871232
2007-05-04 07:06:16 51°13.633 2°56.025 20.6341 0.015075 0.078481 -2.871232
2007-05-04 07:06:21 51°13.633 2°56.025 20.6284 0.015075 0.078481 -2.871232
2007-05-04 07:06:26 51°13.633 2°56.024 20.6233 0.015075 0.078481 -2.871232
2007-05-04 07:06:31 51°13.633 2°56.024 20.6231 0.015075 0.078481 -2.871232
2007-05-04 07:06:37 51°13.633 2°56.024 20.6238 0.015075 0.078482 -2.871232
2007-05-04 07:06:41 51°13.633 2°56.024 20.6193 0.015075 0.078482 -2.871232
2007-05-04 07:06:46 51°13.633 2°56.024 20.6203 0.015075 0.078484 -2.871232
2007-05-04 07:06:51 51°13.633 2°56.024 20.6203 0.015075 0.078484 -2.871232
2007-05-04 07:06:56 51°13.634 2°56.024 20.6133 0.015075 0.078484 -2.871232
2007-05-04 07:07:01 51°13.633 2°56.024 20.6126 0.015075 0.078484 -2.871232
2007-05-04 07:07:06 51°13.633 2°56.024 20.6147 0.015075 0.078485 -2.871232
2007-05-04 07:07:12 51°13.633 2°56.024 20.6152 0.015075 0.078485 -2.871232
2007-05-04 07:07:16 51°13.633 2°56.024 20.6162 0.015075 0.078485 -2.871232
2007-05-04 07:07:21 51°13.633 2°56.024 20.6161 0.015075 0.078486 -2.871232
2007-05-04 07:07:26 51°13.634 2°56.024 20.6078 0.015075 0.078487 -2.871232
2007-05-04 07:07:31 51°13.634 2°56.024 20.5893 0.015075 0.078487 -2.871232
2007-05-04 07:07:37 51°13.634 2°56.025 20.5637 0.015075 0.078487 -2.871232
2007-05-04 07:07:41 51°13.634 2°56.025 20.5503 0.015075 0.078487 -2.871232
2007-05-04 07:07:46 51°13.634 2°56.025 20.5305 0.015075 0.078487 -2.871232
2007-05-04 07:07:51 51°13.634 2°56.025 20.5179 0.015075 0.078487 -2.871232
2007-05-04 07:07:56 51°13.634 2°56.025 20.5151 0.015075 0.078488 -2.871232
2007-05-04 07:08:01 51°13.634 2°56.025 20.5112 0.015075 0.078488 -2.871232
2007-05-04 07:08:06 51°13.634 2°56.024 20.5156 0.015075 0.078488 -2.871232
2007-05-04 07:08:12 51°13.634 2°56.024 20.5183 0.015075 0.078488 -2.871232
2007-05-04 07:08:16 51°13.634 2°56.024 20.5197 0.015075 0.078488 -2.871232
2007-05-04 07:08:22 51°13.634 2°56.024 20.511 0.015075 0.078489 -2.871232
2007-05-04 07:08:26 51°13.634 2°56.024 20.5057 0.015075 0.078489 -2.871232
2007-05-04 07:08:31 51°13.634 2°56.024 20.5042 0.015075 0.078489 -2.871232
2007-05-04 07:08:37 51°13.634 2°56.024 20.504 0.015075 0.078489 -2.871232
2007-05-04 07:08:41 51°13.634 2°56.024 20.5086 0.015075 0.078491 -2.871232
2007-05-04 07:08:46 51°13.634 2°56.024 20.5139 0.015075 0.078491 -2.871232
2007-05-04 07:08:51 51°13.634 2°56.024 20.5174 0.015075 0.078491 -2.871232
2007-05-04 07:08:56 51°13.634 2°56.024 20.5188 0.015075 0.078491 -2.871232
2007-05-04 07:09:01 51°13.634 2°56.025 20.5222 0.015075 0.078491 -2.871232
2007-05-04 07:09:06 51°13.634 2°56.025 20.5219 0.015075 0.078492 -2.871232
2007-05-04 07:09:12 51°13.634 2°56.025 20.5198 0.015075 0.078492 -2.871232
2007-05-04 07:09:16 51°13.634 2°56.025 20.5192 0.015075 0.078492 -2.871232
2007-05-04 07:09:22 51°13.634 2°56.025 20.5197 0.015075 0.078492 -2.871232
2007-05-04 07:09:26 51°13.634 2°56.025 20.5232 0.015075 0.078493 -2.871232
2007-05-04 07:09:31 51°13.634 2°56.025 20.5241 0.015075 0.078493 -2.871232
2007-05-04 07:09:37 51°13.634 2°56.025 20.5264 0.015075 0.078493 -2.871232
2007-05-04 07:09:41 51°13.634 2°56.025 20.5309 0.015075 0.078493 -2.871232
2007-05-04 07:09:46 51°13.633 2°56.025 20.5304 0.015075 0.078493 -2.871232
2007-05-04 07:09:51 51°13.633 2°56.025 20.5309 0.015075 0.078493 -2.871232
2007-05-04 07:09:56 51°13.633 2°56.025 20.5326 0.015075 0.078494 -2.871232
2007-05-04 07:10:01 51°13.633 2°56.025 20.5297 0.015075 0.078494 -2.871232
2007-05-04 07:10:06 51°13.633 2°56.025 20.5314 0.015075 0.078494 -2.871232
2007-05-04 07:10:11 51°13.634 2°56.025 20.5375 0.015075 0.078493 -2.871232
2007-05-04 07:10:16 51°13.634 2°56.025 20.5411 0.015075 0.078494 -2.871232
2007-05-04 07:10:22 51°13.634 2°56.025 20.5455 0.015075 0.078494 -2.871232
2007-05-04 07:10:26 51°13.634 2°56.025 20.5489 0.015075 0.078495 -2.871232
2007-05-04 07:10:31 51°13.634 2°56.025 20.5521 0.015075 0.078495 -2.871232
2007-05-04 07:10:37 51°13.634 2°56.025 20.5539 0.015075 0.078494 -2.871232
2007-05-04 07:10:41 51°13.634 2°56.025 20.5564 0.015075 0.078495 -2.871232
2007-05-04 07:10:46 51°13.634 2°56.025 20.5582 0.015075 0.078495 -2.871232
2007-05-04 07:10:51 51°13.634 2°56.025 20.5604 0.015075 0.078495 -2.871232
2007-05-04 07:10:56 51°13.634 2°56.025 20.5613 0.015075 0.078496 -2.871232
2007-05-04 07:11:01 51°13.634 2°56.025 20.5622 0.015075 0.078496 -2.871232
2007-05-04 07:11:06 51°13.634 2°56.025 20.5604 0.015075 0.078496 -2.871232
2007-05-04 07:11:11 51°13.634 2°56.025 20.5601 0.015075 0.078496 -2.871232
2007-05-04 07:11:16 51°13.634 2°56.025 20.5608 0.015075 0.078496 -2.871232
2007-05-04 07:11:21 51°13.634 2°56.025 20.5621 0.015075 0.078496 -2.871232
2007-05-04 07:11:26 51°13.633 2°56.025 20.5643 0.015075 0.078496 -2.871232
2007-05-04 07:11:31 51°13.633 2°56.025 20.5665 0.015075 0.078496 -2.871232
2007-05-04 07:11:36 51°13.633 2°56.024 20.5678 0.015075 0.078496 -2.871232
2007-05-04 07:11:41 51°13.633 2°56.024 20.5685 0.015075 0.078498 -2.871232
2007-05-04 07:11:46 51°13.633 2°56.024 20.5703 0.015075 0.078498 -2.871232
2007-05-04 07:11:51 51°13.633 2°56.024 20.5713 0.015075 0.078498 -2.871232
2007-05-04 07:11:56 51°13.633 2°56.024 20.5725 0.015075 0.078498 -2.871232
2007-05-04 07:12:01 51°13.633 2°56.024 20.5747 0.015075 0.078498 -2.871232
2007-05-04 07:12:06 51°13.633 2°56.024 20.575 0.015075 0.078498 -2.871232
2007-05-04 07:12:11 51°13.633 2°56.024 20.573 0.015075 0.078499 -2.871232
2007-05-04 07:12:16 51°13.633 2°56.024 20.5738 0.015075 0.078499 -2.871232
2007-05-04 07:12:21 51°13.633 2°56.024 20.5754 0.015075 0.078499 -2.871232
2007-05-04 07:12:26 51°13.633 2°56.024 20.5775 0.015075 0.078499 -2.871232
2007-05-04 07:12:31 51°13.633 2°56.024 20.5785 0.015075 0.078499 -2.871232
2007-05-04 07:12:36 51°13.633 2°56.024 20.5805 0.015075 0.078499 -2.871232
2007-05-04 07:12:41 51°13.633 2°56.024 20.5809 0.015075 0.078499 -2.871232
2007-05-04 07:12:46 51°13.633 2°56.024 20.5832 0.015075 0.0785 -2.871232
2007-05-04 07:12:51 51°13.633 2°56.024 20.5846 0.015075 0.0785 -2.871232
2007-05-04 07:12:56 51°13.633 2°56.024 20.5877 0.015075 0.078499 -2.871232
2007-05-04 07:13:01 51°13.633 2°56.024 20.5896 0.015075 0.078499 -2.871232
2007-05-04 07:13:06 51°13.633 2°56.024 20.5913 0.015075 0.078499 -2.871232
2007-05-04 07:13:11 51°13.633 2°56.023 20.594 0.015075 0.078499 -2.871232
2007-05-04 07:13:16 51°13.633 2°56.023 20.5985 0.015075 0.0785 -2.871232
2007-05-04 07:13:21 51°13.633 2°56.023 20.6017 0.015075 0.0785 -2.871232
2007-05-04 07:13:26 51°13.633 2°56.023 20.6038 0.015075 0.0785 -2.871232
2007-05-04 07:13:31 51°13.633 2°56.023 20.6058 0.015075 0.0785 -2.871232
2007-05-04 07:13:36 51°13.633 2°56.024 20.6074 0.015075 0.0785 -2.871232
2007-05-04 07:13:41 51°13.633 2°56.024 20.607 0.015075 0.0785 -2.871232
2007-05-04 07:13:46 51°13.633 2°56.024 20.6078 0.015075 0.0785 -2.871232
2007-05-04 07:13:51 51°13.633 2°56.024 20.6087 0.015075 0.0785 -2.871232
2007-05-04 07:13:56 51°13.633 2°56.024 20.6086 0.015075 0.078501 -2.871232
2007-05-04 07:14:01 51°13.633 2°56.024 20.6106 0.015075 0.078501 -2.871232
2007-05-04 07:14:06 51°13.633 2°56.024 20.612 0.015075 0.078501 -2.871232
2007-05-04 07:14:11 51°13.633 2°56.024 20.6121 0.015075 0.078501 -2.871232
2007-05-04 07:14:16 51°13.633 2°56.024 20.6144 0.015075 0.078501 -2.871232
2007-05-04 07:14:21 51°13.633 2°56.024 20.6157 0.015075 0.078501 -2.871232
2007-05-04 07:14:26 51°13.633 2°56.024 20.6167 0.015075 0.078501 -2.871232
2007-05-04 07:14:31 51°13.633 2°56.024 20.6166 0.015075 0.078501 -2.871232
2007-05-04 07:14:36 51°13.633 2°56.024 20.6182 0.015075 0.078502 -2.871232
2007-05-04 07:14:41 51°13.633 2°56.024 20.6182 0.015075 0.078502 -2.871232
2007-05-04 07:14:46 51°13.633 2°56.024 20.6194 0.015075 0.078502 -2.871232
2007-05-04 07:14:51 51°13.633 2°56.024 20.6208 0.015075 0.078502 -2.871232
2007-05-04 07:14:56 51°13.633 2°56.024 20.6218 0.015075 0.078502 -2.871232
2007-05-04 07:15:01 51°13.633 2°56.024 20.6232 0.015075 0.078502 -2.871232
2007-05-04 07:15:06 51°13.633 2°56.024 20.6242 0.015075 0.078502 -2.871232
2007-05-04 07:15:11 51°13.633 2°56.024 20.6242 0.015075 0.078502 -2.871232
2007-05-04 07:15:16 51°13.633 2°56.024 20.6238 0.015075 0.078502 -2.871232
2007-05-04 07:15:21 51°13.633 2°56.024 20.6247 0.015075 0.078502 -2.871232
2007-05-04 07:15:26 51°13.633 2°56.023 20.6248 0.015075 0.078502 -2.871232
2007-05-04 07:15:31 51°13.633 2°56.023 20.6258 0.015075 0.078502 -2.871232
2007-05-04 07:15:36 51°13.633 2°56.023 20.6291 0.015075 0.078502 -2.871232
2007-05-04 07:15:41 51°13.633 2°56.023 20.6331 0.015075 0.078503 -2.871232
2007-05-04 07:15:46 51°13.633 2°56.023 20.6358 0.015075 0.078502 -2.871232
2007-05-04 07:15:51 51°13.633 2°56.024 20.6385 0.015075 0.078503 -2.871232
2007-05-04 07:15:56 51°13.633 2°56.024 20.6403 0.015075 0.078502 -2.871232
2007-05-04 07:16:01 51°13.633 2°56.024 20.6416 0.015075 0.078502 -2.871232
2007-05-04 07:16:06 51°13.633 2°56.024 20.6423 0.015075 0.078503 -2.871232
2007-05-04 07:16:11 51°13.633 2°56.024 20.6436 0.015075 0.078503 -2.871232
2007-05-04 07:16:16 51°13.633 2°56.024 20.6438 0.015075 0.078503 -2.871232
2007-05-04 07:16:21 51°13.633 2°56.024 20.6418 0.015075 0.078503 -2.871232
2007-05-04 07:16:26 51°13.633 2°56.024 20.6417 0.015075 0.078503 -2.871232
2007-05-04 07:16:31 51°13.633 2°56.024 20.6404 0.015075 0.078503 -2.871232
2007-05-04 07:16:36 51°13.633 2°56.024 20.6403 0.015075 0.078503 -2.871232
2007-05-04 07:16:41 51°13.633 2°56.024 20.6396 0.015075 0.078503 -2.871232
2007-05-04 07:16:46 51°13.633 2°56.024 20.6396 0.015075 0.078503 -2.871232
2007-05-04 07:16:51 51°13.633 2°56.024 20.6407 0.015075 0.078503 -2.871232
2007-05-04 07:16:56 51°13.633 2°56.024 20.6392 0.015075 0.078503 -2.871232
2007-05-04 07:17:01 51°13.633 2°56.024 20.6405 0.015075 0.078503 -2.871232
2007-05-04 07:17:06 51°13.633 2°56.024 20.6377 0.015075 0.078503 -2.871232
2007-05-04 07:17:11 51°13.633 2°56.024 20.6376 0.015075 0.078505 -2.871232
2007-05-04 07:17:16 51°13.633 2°56.024 20.6364 0.015075 0.078503 -2.871232
2007-05-04 07:17:21 51°13.633 2°56.024 20.6352 0.015075 0.078505 -2.871232
2007-05-04 07:17:26 51°13.633 2°56.024 20.6403 0.015075 0.078505 -2.871232
2007-05-04 07:17:31 51°13.633 2°56.024 20.6402 0.015075 0.078505 -2.871232
2007-05-04 07:17:36 51°13.633 2°56.024 20.6404 0.015075 0.078505 -2.871232
2007-05-04 07:17:41 51°13.633 2°56.024 20.6442 0.015075 0.078505 -2.871232
2007-05-04 07:17:46 51°13.633 2°56.024 20.6429 0.015075 0.078505 -2.871232
2007-05-04 07:17:51 51°13.633 2°56.024 20.6431 0.015075 0.078505 -2.871232
2007-05-04 07:17:56 51°13.633 2°56.024 20.6452 0.015075 0.078505 -2.871232
2007-05-04 07:18:01 51°13.633 2°56.024 20.6454 0.015075 0.078505 -2.871232
2007-05-04 07:18:06 51°13.633 2°56.024 20.6477 0.015075 0.078505 -2.871232
2007-05-04 07:18:11 51°13.633 2°56.024 20.6483 0.015075 0.078505 -2.871232
2007-05-04 07:18:16 51°13.633 2°56.024 20.6527 0.015075 0.078505 -2.871232
2007-05-04 07:18:21 51°13.633 2°56.024 20.6562 0.015075 0.078505 -2.871232
2007-05-04 07:18:26 51°13.633 2°56.024 20.6506 0.015075 0.078505 -2.871232
2007-05-04 07:18:31 51°13.633 2°56.024 20.6799 0.015075 0.078505 -2.871232
2007-05-04 07:18:36 51°13.634 2°56.024 20.6854 0.015075 0.078505 -2.871232
2007-05-04 07:18:42 51°13.634 2°56.025 20.6793 0.015075 0.078505 -2.871232
2007-05-04 07:18:46 51°13.634 2°56.025 20.6776 0.015075 0.078506 -2.871232
2007-05-04 07:18:51 51°13.634 2°56.025 20.6743 0.015075 0.078505 -2.871232
2007-05-04 07:18:56 51°13.634 2°56.025 20.6696 0.015075 0.078505 -2.871232
2007-05-04 07:19:01 51°13.634 2°56.025 20.6642 0.015075 0.078505 -2.871232
2007-05-04 07:19:06 51°13.634 2°56.025 20.665 0.015075 0.078506 -2.871232
2007-05-04 07:19:11 51°13.634 2°56.025 20.6661 0.015075 0.078506 -2.871232
2007-05-04 07:19:16 51°13.634 2°56.025 20.669 0.015075 0.078506 -2.871232
2007-05-04 07:19:21 51°13.634 2°56.025 20.669 0.015075 0.078506 -2.871232
2007-05-04 07:19:26 51°13.634 2°56.025 20.6702 0.015075 0.078506 -2.871232
2007-05-04 07:19:31 51°13.633 2°56.025 20.6721 0.015075 0.078506 -2.871232
2007-05-04 07:19:36 51°13.633 2°56.025 20.6734 0.015075 0.078506 -2.871232
2007-05-04 07:19:41 51°13.633 2°56.025 20.6721 0.015075 0.078506 -2.871232
2007-05-04 07:19:46 51°13.633 2°56.025 20.6724 0.015075 0.078506 -2.871232
2007-05-04 07:19:51 51°13.633 2°56.025 20.6718 0.015075 0.078506 -2.871232
2007-05-04 07:19:56 51°13.633 2°56.025 20.6717 0.015075 0.078506 -2.871232
2007-05-04 07:20:01 51°13.633 2°56.025 20.6718 0.015075 0.078506 -2.871232
2007-05-04 07:20:06 51°13.633 2°56.025 20.6723 0.015075 0.078506 -2.871232
2007-05-04 07:20:11 51°13.634 2°56.025 20.6722 0.015075 0.078506 -2.871232
2007-05-04 07:20:16 51°13.634 2°56.025 20.6723 0.015075 0.078507 -2.871232
2007-05-04 07:20:21 51°13.634 2°56.025 20.6732 0.015075 0.078507 -2.871232
2007-05-04 07:20:26 51°13.634 2°56.025 20.6734 0.015075 0.078507 -2.871232
2007-05-04 07:20:31 51°13.634 2°56.025 20.6736 0.015075 0.078507 -2.871232
2007-05-04 07:20:36 51°13.634 2°56.025 20.6743 0.015075 0.078507 -2.871232
2007-05-04 07:20:41 51°13.634 2°56.025 20.675 0.015075 0.078506 -2.871232
2007-05-04 07:20:46 51°13.634 2°56.025 20.6756 0.015075 0.078507 -2.871232
2007-05-04 07:20:51 51°13.634 2°56.025 20.6761 0.015075 0.078507 -2.871232
2007-05-04 07:20:56 51°13.634 2°56.025 20.6765 0.015075 0.078507 -2.871232
2007-05-04 07:21:01 51°13.634 2°56.026 20.6768 0.015075 0.078507 -2.871232
2007-05-04 07:21:06 51°13.634 2°56.026 20.6767 0.015075 0.078507 -2.871232
2007-05-04 07:21:11 51°13.634 2°56.025 20.6779 0.015075 0.078507 -2.871232
2007-05-04 07:21:16 51°13.634 2°56.025 20.6787 0.015075 0.078507 -2.871232
2007-05-04 07:21:21 51°13.634 2°56.025 20.6796 0.015075 0.078507 -2.871232
2007-05-04 07:21:26 51°13.634 2°56.025 20.68 0.015075 0.078507 -2.871232
2007-05-04 07:21:31 51°13.634 2°56.025 20.68 0.015075 0.078507 -2.871232
2007-05-04 07:21:36 51°13.634 2°56.025 20.681 0.015075 0.078507 -2.871232
2007-05-04 07:21:41 51°13.635 2°56.025 20.6813 0.015075 0.078508 -2.871232
2007-05-04 07:21:46 51°13.635 2°56.025 20.6814 0.015075 0.078507 -2.871232
2007-05-04 07:21:51 51°13.635 2°56.025 20.6823 0.015075 0.078507 -2.871232
2007-05-04 07:21:56 51°13.635 2°56.025 20.6824 0.015075 0.078508 -2.871232
2007-05-04 07:22:01 51°13.635 2°56.025 20.6826 0.015075 0.078508 -2.871232
2007-05-04 07:22:06 51°13.635 2°56.025 20.6828 0.015075 0.078508 -2.871232
2007-05-04 07:22:11 51°13.635 2°56.025 20.6821 0.015075 0.078508 -2.871232
2007-05-04 07:22:16 51°13.635 2°56.025 20.6836 0.014972 0.078003 -2.871232
2007-05-04 07:22:21 51°13.635 2°56.025 20.6843 0.014972 0.078003 -2.871232
2007-05-04 07:22:26 51°13.635 2°56.025 20.6855 0.015075 0.078508 -2.871232
2007-05-04 07:22:31 51°13.635 2°56.025 20.6856 0.015075 0.078508 -2.871232
2007-05-04 07:22:36 51°13.635 2°56.025 20.6858 0.015075 0.078508 -2.871232
2007-05-04 07:22:41 51°13.635 2°56.025 20.6867 0.014972 0.078003 -2.871232
2007-05-04 07:22:46 51°13.635 2°56.025 20.6872 0.014972 0.078003 -2.871232
2007-05-04 07:22:51 51°13.635 2°56.025 20.6874 0.015075 0.078508 -2.871232
2007-05-04 07:22:56 51°13.635 2°56.025 20.688 0.014972 0.078004 -2.871232
2007-05-04 07:23:01 51°13.635 2°56.025 20.6888 0.014972 0.078004 -2.871232
2007-05-04 07:23:06 51°13.635 2°56.025 20.6895 0.015075 0.078508 -2.871232
2007-05-04 07:23:11 51°13.635 2°56.025 20.6903 0.015075 0.078509 -2.871232
2007-05-04 07:23:16 51°13.635 2°56.025 20.692 0.014972 0.078003 -2.871232
2007-05-04 07:23:21 51°13.635 2°56.025 20.6919 0.014972 0.078003 -2.871232
2007-05-04 07:23:26 51°13.635 2°56.025 20.6919 0.014972 0.078004 -2.871232
2007-05-04 07:23:31 51°13.635 2°56.025 20.6924 0.014972 0.078004 -2.871232
2007-05-04 07:23:36 51°13.635 2°56.025 20.6924 0.015075 0.078509 -2.871232
2007-05-04 07:23:40 51°13.635 2°56.025 20.6915 0.014972 0.078004 -2.871232
2007-05-04 07:23:45 51°13.635 2°56.025 20.6907 0.015075 0.078509 -2.871232
2007-05-04 07:23:50 51°13.635 2°56.025 20.6887 0.014972 0.078004 -2.871232
2007-05-04 07:23:56 51°13.635 2°56.025 20.6869 0.014972 0.078004 -2.871232
2007-05-04 07:24:01 51°13.635 2°56.025 20.6869 0.014972 0.078004 -2.871232
2007-05-04 07:24:06 51°13.635 2°56.025 20.6857 0.015075 0.078509 -2.871232
2007-05-04 07:24:11 51°13.635 2°56.025 20.686 0.014972 0.078004 -2.871232
2007-05-04 07:24:16 51°13.635 2°56.025 20.6872 0.014972 0.078004 -2.871232
2007-05-04 07:24:21 51°13.635 2°56.025 20.6879 0.014972 0.078005 -2.871232
2007-05-04 07:24:26 51°13.635 2°56.025 20.6885 0.014972 0.078005 -2.871232
2007-05-04 07:24:31 51°13.635 2°56.025 20.6885 0.014972 0.078005 -2.871232
2007-05-04 07:24:36 51°13.635 2°56.025 20.6902 0.014972 0.078005 -2.871232
2007-05-04 07:24:41 51°13.635 2°56.025 20.6902 0.014972 0.078005 -2.871232
2007-05-04 07:24:46 51°13.635 2°56.025 20.6936 0.014972 0.078004 -2.871232
2007-05-04 07:24:51 51°13.635 2°56.025 20.6945 0.014972 0.078005 -2.871232
2007-05-04 07:24:56 51°13.635 2°56.025 20.6956 0.014972 0.078005 -2.871232
2007-05-04 07:25:01 51°13.635 2°56.025 20.6957 0.014972 0.078005 -2.871232
2007-05-04 07:25:06 51°13.636 2°56.025 20.6966 0.014972 0.078005 -2.871232
2007-05-04 07:25:11 51°13.636 2°56.026 20.6965 0.014972 0.078005 -2.871232
2007-05-04 07:25:16 51°13.636 2°56.026 20.6961 0.014972 0.078005 -2.871232
2007-05-04 07:25:21 51°13.636 2°56.026 20.6964 0.014972 0.078005 -2.871232
2007-05-04 07:25:26 51°13.636 2°56.026 20.6967 0.014972 0.078005 -2.871232
2007-05-04 07:25:31 51°13.636 2°56.026 20.6971 0.014972 0.078005 -2.871232
2007-05-04 07:25:36 51°13.636 2°56.026 20.698 0.014972 0.078005 -2.871232
2007-05-04 07:25:41 51°13.636 2°56.026 20.6997 0.014972 0.078005 -2.871232
2007-05-04 07:25:46 51°13.636 2°56.026 20.6996 0.014972 0.078005 -2.871232
2007-05-04 07:25:51 51°13.635 2°56.026 20.7002 0.014972 0.078005 -2.871232
2007-05-04 07:25:56 51°13.635 2°56.026 20.7024 0.014972 0.078006 -2.871232
2007-05-04 07:26:01 51°13.635 2°56.026 20.7032 0.014972 0.078006 -2.871232
2007-05-04 07:26:06 51°13.635 2°56.026 20.7077 0.014972 0.078006 -2.871232
2007-05-04 07:26:11 51°13.635 2°56.026 20.7083 0.014972 0.078006 -2.871232
2007-05-04 07:26:16 51°13.635 2°56.026 20.7118 0.014972 0.078006 -2.871232
2007-05-04 07:26:21 51°13.635 2°56.026 20.713 0.014972 0.078006 -2.871232
2007-05-04 07:26:26 51°13.635 2°56.026 20.712 0.014972 0.078006 -2.871232
2007-05-04 07:26:31 51°13.635 2°56.026 20.7127 0.014972 0.078006 -2.871232
2007-05-04 07:26:36 51°13.635 2°56.026 20.7119 0.014972 0.078006 -2.871232
2007-05-04 07:26:41 51°13.635 2°56.026 20.7108 0.014972 0.078006 -2.871232
2007-05-04 07:26:46 51°13.635 2°56.026 20.7113 0.014972 0.078006 -2.871232
2007-05-04 07:26:51 51°13.635 2°56.026 20.7098 0.014972 0.078006 -2.871232
2007-05-04 07:26:56 51°13.635 2°56.026 20.7106 0.014972 0.078006 -2.871232
2007-05-04 07:27:01 51°13.635 2°56.026 20.7117 0.014972 0.078006 -2.871232
2007-05-04 07:27:06 51°13.635 2°56.026 20.7126 0.014972 0.078007 -2.871232
2007-05-04 07:27:11 51°13.635 2°56.026 20.7142 0.014972 0.078006 -2.871232
2007-05-04 07:27:16 51°13.635 2°56.026 20.7133 0.014972 0.078007 -2.871232
2007-05-04 07:27:21 51°13.635 2°56.026 20.7123 0.014972 0.078007 -2.871232
2007-05-04 07:27:26 51°13.635 2°56.026 20.7137 0.014972 0.078007 -2.871232
2007-05-04 07:27:31 51°13.635 2°56.026 20.7128 0.014972 0.078007 -2.871232
2007-05-04 07:27:36 51°13.635 2°56.026 20.7126 0.014972 0.078007 -2.871232
2007-05-04 07:27:41 51°13.635 2°56.026 20.7147 0.014972 0.078007 -2.871232
2007-05-04 07:27:46 51°13.635 2°56.026 20.717 0.014972 0.078009 -2.871232
2007-05-04 07:27:51 51°13.635 2°56.026 20.7164 0.014972 0.078007 -2.871232
2007-05-04 07:27:56 51°13.635 2°56.026 20.7187 0.014972 0.078007 -2.871232
2007-05-04 07:28:01 51°13.635 2°56.026 20.7161 0.014972 0.078007 -2.871232
2007-05-04 07:28:06 51°13.635 2°56.026 20.7176 0.014972 0.078007 -2.871232
2007-05-04 07:28:11 51°13.635 2°56.026 20.7232 0.014972 0.078007 -2.871232
2007-05-04 07:28:16 51°13.635 2°56.026 20.7212 0.014972 0.078007 -2.871232
2007-05-04 07:28:21 51°13.635 2°56.026 20.7232 0.014972 0.078009 -2.871232
2007-05-04 07:28:26 51°13.635 2°56.026 20.7248 0.014972 0.078009 -2.871232
2007-05-04 07:28:31 51°13.635 2°56.026 20.7285 0.014972 0.078009 -2.871232
2007-05-04 07:28:36 51°13.635 2°56.026 20.7295 0.014972 0.078009 -2.871232
2007-05-04 07:28:41 51°13.635 2°56.026 20.7367 0.014972 0.078009 -2.871232
2007-05-04 07:28:46 51°13.635 2°56.026 20.7399 0.014972 0.078009 -2.871232
2007-05-04 07:28:51 51°13.635 2°56.026 20.7422 0.014972 0.078009 -2.871232
2007-05-04 07:28:56 51°13.635 2°56.026 20.743 0.014972 0.078009 -2.871232
2007-05-04 07:29:01 51°13.635 2°56.026 20.7462 0.014972 0.078009 -2.871232
2007-05-04 07:29:06 51°13.635 2°56.026 20.7479 0.014972 0.078009 -2.871232
2007-05-04 07:29:11 51°13.635 2°56.026 20.7489 0.014972 0.07801 -2.871232
2007-05-04 07:29:16 51°13.635 2°56.026 20.7506 0.014972 0.07801 -2.871232
2007-05-04 07:29:21 51°13.635 2°56.026 20.7515 0.014972 0.07801 -2.871232
2007-05-04 07:29:26 51°13.635 2°56.026 20.7528 0.014972 0.07801 -2.871232
2007-05-04 07:29:31 51°13.635 2°56.026 20.7539 0.014972 0.07801 -2.871232
2007-05-04 07:29:36 51°13.635 2°56.026 20.7535 0.014972 0.07801 -2.871232
2007-05-04 07:29:41 51°13.635 2°56.026 20.7542 0.014972 0.07801 -2.871232
2007-05-04 07:29:46 51°13.635 2°56.026 20.7567 0.014972 0.07801 -2.871232
2007-05-04 07:29:51 51°13.635 2°56.026 20.7566 0.014972 0.07801 -2.871232
2007-05-04 07:29:56 51°13.635 2°56.026 20.757 0.014972 0.07801 -2.871232
2007-05-04 07:30:01 51°13.635 2°56.026 20.7584 0.014972 0.07801 -2.871232
2007-05-04 07:30:06 51°13.635 2°56.026 20.7581 0.014972 0.07801 -2.871232
2007-05-04 07:30:11 51°13.634 2°56.026 20.7574 0.014972 0.078011 -2.871232
2007-05-04 07:30:16 51°13.634 2°56.026 20.7568 0.014972 0.078011 -2.871232
2007-05-04 07:30:21 51°13.634 2°56.026 20.7536 0.014972 0.078011 -2.871232
2007-05-04 07:30:26 51°13.634 2°56.026 20.7532 0.014972 0.078011 -2.871232
2007-05-04 07:30:31 51°13.634 2°56.026 20.7544 0.014972 0.078011 -2.871232
2007-05-04 07:30:36 51°13.634 2°56.026 20.7552 0.014972 0.078011 -2.871232
2007-05-04 07:30:41 51°13.634 2°56.026 20.7558 0.014972 0.078011 -2.871232
2007-05-04 07:30:46 51°13.634 2°56.026 20.7568 0.014972 0.078011 -2.871232
2007-05-04 07:30:51 51°13.634 2°56.026 20.7573 0.014972 0.078011 -2.871232
2007-05-04 07:30:56 51°13.634 2°56.026 20.7579 0.014972 0.078011 -2.871232
2007-05-04 07:31:01 51°13.634 2°56.026 20.759 0.014972 0.078011 -2.871232
2007-05-04 07:31:06 51°13.634 2°56.026 20.7593 0.014972 0.078011 -2.871232
2007-05-04 07:31:11 51°13.634 2°56.026 20.7596 0.014972 0.078011 -2.871232
2007-05-04 07:31:16 51°13.635 2°56.026 20.7598 0.014972 0.078011 -2.871232
2007-05-04 07:31:21 51°13.635 2°56.026 20.7604 0.014972 0.078011 -2.871232
2007-05-04 07:31:26 51°13.635 2°56.026 20.7607 0.014972 0.078012 -2.871232
2007-05-04 07:31:31 51°13.635 2°56.026 20.761 0.014972 0.078012 -2.871232
2007-05-04 07:31:36 51°13.635 2°56.026 20.763 0.014972 0.078012 -2.871232
2007-05-04 07:31:41 51°13.635 2°56.026 20.7641 0.014972 0.078012 -2.871232
2007-05-04 07:31:46 51°13.635 2°56.026 20.7646 0.014972 0.078012 -2.871232
2007-05-04 07:31:51 51°13.635 2°56.026 20.7661 0.014972 0.078012 -2.871232
2007-05-04 07:31:56 51°13.635 2°56.026 20.7663 0.014972 0.078013 -2.871232
2007-05-04 07:32:01 51°13.635 2°56.026 20.7669 0.014972 0.078013 -2.871232
2007-05-04 07:32:06 51°13.635 2°56.025 20.7681 0.014972 0.078013 -2.871232
2007-05-04 07:32:11 51°13.635 2°56.025 20.7711 0.014972 0.078012 -2.871232
2007-05-04 07:32:16 51°13.634 2°56.025 20.7711 0.014972 0.078012 -2.871232
2007-05-04 07:32:21 51°13.634 2°56.025 20.7711 0.014972 0.078013 -2.871232
2007-05-04 07:32:26 51°13.634 2°56.025 20.7709 0.014972 0.078013 -2.871232
2007-05-04 07:32:31 51°13.634 2°56.025 20.7683 0.014972 0.078013 -2.871232
2007-05-04 07:32:36 51°13.634 2°56.025 20.7675 0.014972 0.078013 -2.871232
2007-05-04 07:32:41 51°13.634 2°56.025 20.7678 0.014972 0.078013 -2.871232
2007-05-04 07:32:46 51°13.634 2°56.025 20.7698 0.014972 0.078013 -2.871232
2007-05-04 07:32:51 51°13.634 2°56.025 20.7687 0.014972 0.078013 -2.871232
2007-05-04 07:32:56 51°13.634 2°56.025 20.769 0.014972 0.078013 -2.871232
2007-05-04 07:33:01 51°13.634 2°56.025 20.7709 0.014972 0.078013 -2.871232
2007-05-04 07:33:06 51°13.634 2°56.025 20.7711 0.014972 0.078012 -2.871232
2007-05-04 07:33:11 51°13.634 2°56.025 20.7716 0.014972 0.078013 -2.871232
2007-05-04 07:33:16 51°13.634 2°56.025 20.7704 0.014972 0.078013 -2.871232
2007-05-04 07:33:21 51°13.634 2°56.025 20.771 0.014972 0.078013 -2.871232
2007-05-04 07:33:26 51°13.634 2°56.025 20.7713 0.014972 0.078013 -2.871232
2007-05-04 07:33:31 51°13.634 2°56.025 20.7717 0.014972 0.078013 -2.871232
2007-05-04 07:33:36 51°13.634 2°56.025 20.7729 0.014972 0.078013 -2.871232
2007-05-04 07:33:41 51°13.634 2°56.025 20.7728 0.014972 0.078013 -2.871232
2007-05-04 07:33:46 51°13.634 2°56.025 20.7726 0.014972 0.078013 -2.871232
2007-05-04 07:33:51 51°13.634 2°56.025 20.7739 0.014972 0.078012 -2.871232
2007-05-04 07:33:56 51°13.635 2°56.025 20.7737 0.014972 0.078012 -2.871232
2007-05-04 07:34:01 51°13.635 2°56.025 20.7759 0.014972 0.078012 -2.871232
2007-05-04 07:34:06 51°13.635 2°56.025 20.7792 0.014972 0.078013 -2.871232
2007-05-04 07:34:11 51°13.635 2°56.025 20.782 0.014972 0.078013 -2.871232
2007-05-04 07:34:16 51°13.635 2°56.025 20.7958 0.014972 0.078013 -2.871232
2007-05-04 07:34:21 51°13.635 2°56.025 20.8153 0.014972 0.078013 -2.871232
2007-05-04 07:34:26 51°13.635 2°56.025 20.8262 0.014972 0.078013 -2.871232
2007-05-04 07:34:31 51°13.635 2°56.025 20.834 0.014972 0.078013 -2.871232
2007-05-04 07:34:36 51°13.635 2°56.025 20.8296 0.014972 0.078013 -2.871232
2007-05-04 07:34:41 51°13.635 2°56.025 20.8286 0.014972 0.078013 -2.871232
2007-05-04 07:34:46 51°13.635 2°56.025 20.8284 0.014972 0.078013 -2.871232
2007-05-04 07:34:51 51°13.635 2°56.025 20.8284 0.014972 0.078013 -2.871232
2007-05-04 07:34:56 51°13.634 2°56.025 20.83 0.014972 0.078013 -2.871232
2007-05-04 07:35:01 51°13.634 2°56.025 20.8332 0.014972 0.078013 -2.871232
2007-05-04 07:35:06 51°13.634 2°56.025 20.8348 0.014972 0.078013 -2.871232
2007-05-04 07:35:11 51°13.634 2°56.025 20.8368 0.014972 0.078012 -2.871232
2007-05-04 07:35:16 51°13.634 2°56.025 20.8389 0.014972 0.078013 -2.871232
2007-05-04 07:35:21 51°13.634 2°56.025 20.8469 0.014972 0.078013 -2.871232
2007-05-04 07:35:26 51°13.634 2°56.025 20.8647 0.014972 0.078013 -2.871232
2007-05-04 07:35:31 51°13.634 2°56.025 20.8475 0.014972 0.078013 -2.871232
2007-05-04 07:35:36 51°13.634 2°56.025 20.8375 0.014972 0.078013 -2.871232
2007-05-04 07:35:41 51°13.634 2°56.025 20.8263 0.014972 0.078013 -2.871232
2007-05-04 07:35:46 51°13.634 2°56.025 20.8333 0.014972 0.078013 -2.871232
2007-05-04 07:35:51 51°13.634 2°56.025 20.8387 0.014972 0.078013 -2.871232
2007-05-04 07:35:56 51°13.634 2°56.025 20.8403 0.014972 0.078013 -2.871232
2007-05-04 07:36:01 51°13.634 2°56.025 20.8405 0.014972 0.078013 -2.871232
2007-05-04 07:36:06 51°13.634 2°56.025 20.8416 0.014972 0.078013 -2.871232
2007-05-04 07:36:11 51°13.634 2°56.025 20.8421 0.014972 0.078013 -2.871232
2007-05-04 07:36:16 51°13.634 2°56.025 20.842 0.014972 0.078012 -2.871232
2007-05-04 07:36:21 51°13.634 2°56.024 20.8421 0.014972 0.078013 -2.871232
2007-05-04 07:36:26 51°13.634 2°56.025 20.8421 0.014972 0.078013 -2.871232
2007-05-04 07:36:31 51°13.634 2°56.025 20.8426 0.014972 0.078013 -2.871232
2007-05-04 07:36:36 51°13.634 2°56.025 20.8433 0.014972 0.078012 -2.871232
2007-05-04 07:36:41 51°13.634 2°56.025 20.8436 0.014972 0.078013 -2.871232
2007-05-04 07:36:46 51°13.634 2°56.025 20.8432 0.014972 0.078013 -2.871232
2007-05-04 07:36:51 51°13.634 2°56.025 20.8437 0.014972 0.078012 -2.871232
2007-05-04 07:36:56 51°13.634 2°56.025 20.8442 0.014972 0.078012 -2.871232
2007-05-04 07:37:01 51°13.634 2°56.025 20.8448 0.014972 0.078012 -2.871232
2007-05-04 07:37:06 51°13.633 2°56.025 20.8469 0.014972 0.078012 -2.871232
2007-05-04 07:37:11 51°13.633 2°56.025 20.848 0.014972 0.078013 -2.871232
2007-05-04 07:37:16 51°13.633 2°56.025 20.849 0.014972 0.078012 -2.871232
2007-05-04 07:37:21 51°13.633 2°56.025 20.8499 0.014972 0.078013 -2.871232
2007-05-04 07:37:26 51°13.633 2°56.025 20.8518 0.014972 0.078012 -2.871232
2007-05-04 07:37:31 51°13.633 2°56.025 20.8508 0.014972 0.078012 -2.871232
2007-05-04 07:37:36 51°13.633 2°56.024 20.8495 0.014972 0.078012 -2.871232
2007-05-04 07:37:41 51°13.633 2°56.024 20.8425 0.014972 0.078012 -2.871232
2007-05-04 07:37:46 51°13.633 2°56.024 20.833 0.014972 0.078012 -2.871232
2007-05-04 07:37:51 51°13.633 2°56.023 20.8263 0.014972 0.078012 -2.871232
2007-05-04 07:37:56 51°13.633 2°56.023 20.8275 0.014972 0.078013 -2.871232
2007-05-04 07:38:01 51°13.633 2°56.022 20.8302 0.014972 0.078013 -2.871232
2007-05-04 07:38:06 51°13.633 2°56.02 20.834 0.014972 0.078012 -2.871232
2007-05-04 07:38:11 51°13.634 2°56.018 20.786 0.014972 0.078013 -2.871232
2007-05-04 07:38:16 51°13.634 2°56.016 20.8221 0.014972 0.078012 -2.871232
2007-05-04 07:38:21 51°13.635 2°56.013 20.8623 0.014972 0.078012 -2.871232
2007-05-04 07:38:26 51°13.635 2°56.01 20.8563 0.014972 0.078012 -2.871232
2007-05-04 07:38:31 51°13.636 2°56.007 20.8431 0.014972 0.078012 -2.871232
2007-05-04 07:38:36 51°13.637 2°56.003 20.8649 0.014972 0.078012 -2.871232
2007-05-04 07:38:41 51°13.638 2°55.999 20.8601 0.014972 0.078012 -2.871232
2007-05-04 07:38:46 51°13.639 2°55.995 20.8563 0.014972 0.078012 -2.871232
2007-05-04 07:38:51 51°13.64 2°55.991 20.8568 0.014972 0.078012 -2.871232
2007-05-04 07:38:56 51°13.642 2°55.987 20.8522 0.014972 0.078012 -2.871232
2007-05-04 07:39:01 51°13.643 2°55.982 20.8539 0.014972 0.078012 -2.871232
2007-05-04 07:39:06 51°13.644 2°55.977 20.8534 0.014972 0.078012 -2.871232
2007-05-04 07:39:11 51°13.646 2°55.972 20.8609 0.014972 0.078012 -2.871232
2007-05-04 07:39:16 51°13.647 2°55.967 20.8593 0.014972 0.078012 -2.871232
2007-05-04 07:39:21 51°13.648 2°55.961 20.8609 0.014972 0.078012 -2.871232
2007-05-04 07:39:26 51°13.65 2°55.955 20.8617 0.014972 0.078012 -2.871232
2007-05-04 07:39:31 51°13.651 2°55.949 20.8644 0.014972 0.078012 -2.871232
2007-05-04 07:39:36 51°13.653 2°55.943 20.8674 0.014972 0.078012 -2.871232
2007-05-04 07:39:41 51°13.654 2°55.936 20.8684 0.014972 0.078012 -2.871232
2007-05-04 07:39:46 51°13.655 2°55.93 20.868 0.014972 0.078012 -2.871232
2007-05-04 07:39:51 51°13.657 2°55.923 20.8683 0.014972 0.078011 -2.871232
2007-05-04 07:39:56 51°13.658 2°55.916 20.87 0.014972 0.078012 -2.871232
2007-05-04 07:40:01 51°13.66 2°55.91 20.8705 0.014972 0.078012 -2.871232
2007-05-04 07:40:06 51°13.661 2°55.902 20.8711 0.014972 0.078012 -2.871232
2007-05-04 07:40:11 51°13.663 2°55.895 20.8708 0.014972 0.078012 -2.871232
2007-05-04 07:40:16 51°13.664 2°55.888 20.8719 0.014972 0.078012 -2.871232
2007-05-04 07:40:21 51°13.665 2°55.881 20.8713 0.014972 0.078012 -2.871232
2007-05-04 07:40:26 51°13.667 2°55.874 20.8884 0.014972 0.078012 -2.871232
2007-05-04 07:40:31 51°13.669 2°55.867 20.8831 0.014972 0.078012 -2.871232
2007-05-04 07:40:36 51°13.671 2°55.86 20.8816 0.014972 0.078012 -2.871232
2007-05-04 07:40:41 51°13.672 2°55.853 20.881 0.014972 0.078012 -2.871232
2007-05-04 07:40:46 51°13.674 2°55.846 20.8814 0.014972 0.078012 -2.871232
2007-05-04 07:40:51 51°13.676 2°55.839 20.8823 0.014972 0.078012 -2.871232
2007-05-04 07:40:56 51°13.678 2°55.832 20.8818 0.014972 0.078012 -2.871232
2007-05-04 07:41:01 51°13.681 2°55.825 20.8795 0.014972 0.078012 -2.871232
2007-05-04 07:41:06 51°13.683 2°55.818 20.8879 0.014972 0.078012 -2.871232
2007-05-04 07:41:11 51°13.685 2°55.811 20.9211 0.014972 0.078012 -2.871232
2007-05-04 07:41:16 51°13.688 2°55.805 20.8995 0.014972 0.078012 -2.871232
2007-05-04 07:41:21 51°13.69 2°55.799 20.893 0.014972 0.078012 -2.871232
2007-05-04 07:41:26 51°13.692 2°55.793 20.8978 0.014972 0.078012 -2.871232
2007-05-04 07:41:31 51°13.694 2°55.788 20.8987 0.014972 0.078012 -2.871232
2007-05-04 07:41:36 51°13.696 2°55.785 20.9031 0.014972 0.078012 -2.871232
2007-05-04 07:41:41 51°13.697 2°55.782 20.9414 0.014972 0.078012 -2.871232
2007-05-04 07:41:46 51°13.698 2°55.78 20.9099 0.014972 0.078012 -2.871232
2007-05-04 07:41:51 51°13.699 2°55.778 20.8872 0.014972 0.078012 -2.871232
2007-05-04 07:41:56 51°13.699 2°55.776 20.8898 0.014972 0.078012 -2.871232
2007-05-04 07:42:01 51°13.7 2°55.773 20.8616 0.014972 0.078012 -2.871232
2007-05-04 07:42:06 51°13.701 2°55.77 20.86 0.014972 0.078013 -2.871232
2007-05-04 07:42:11 51°13.702 2°55.766 20.8973 0.014972 0.078013 -2.871232
2007-05-04 07:42:16 51°13.704 2°55.762 20.8857 0.014972 0.078013 -2.871232
2007-05-04 07:42:21 51°13.705 2°55.757 20.8889 0.014972 0.078013 -2.871232
2007-05-04 07:42:26 51°13.706 2°55.752 20.8906 0.014972 0.078013 -2.871232
2007-05-04 07:42:31 51°13.707 2°55.748 20.8943 0.014972 0.078013 -2.871232
2007-05-04 07:42:36 51°13.709 2°55.743 20.896 0.014972 0.078013 -2.871232
2007-05-04 07:42:41 51°13.71 2°55.738 20.8975 0.014972 0.078014 -2.871232
2007-05-04 07:42:46 51°13.711 2°55.733 20.8975 0.014972 0.078013 -2.871232
2007-05-04 07:42:51 51°13.712 2°55.729 20.8981 0.014972 0.078014 -2.871232
2007-05-04 07:42:56 51°13.713 2°55.726 20.9107 0.014972 0.078014 -2.871232
2007-05-04 07:43:01 51°13.713 2°55.724 20.9343 0.014972 0.078014 -2.871232
2007-05-04 07:43:06 51°13.713 2°55.723 20.9604 0.014972 0.078014 -2.871232
2007-05-04 07:43:11 51°13.713 2°55.723 20.9579 0.014972 0.078014 -2.871232
2007-05-04 07:43:16 51°13.713 2°55.724 20.9611 0.014972 0.078014 -2.871232
2007-05-04 07:43:21 51°13.712 2°55.726 20.9693 0.014972 0.078014 -2.871232
2007-05-04 07:43:26 51°13.712 2°55.728 20.9743 0.014972 0.078015 -2.871232
2007-05-04 07:43:31 51°13.712 2°55.731 20.9741 0.014972 0.078015 -2.871232
2007-05-04 07:43:36 51°13.713 2°55.735 20.9783 0.014972 0.078015 -2.871232
2007-05-04 07:43:41 51°13.713 2°55.739 20.9713 0.014972 0.078017 -2.871232
2007-05-04 07:43:46 51°13.714 2°55.743 20.9594 0.014972 0.078017 -2.871232
2007-05-04 07:43:51 51°13.715 2°55.747 20.9489 0.014972 0.078018 -2.871232
2007-05-04 07:43:56 51°13.716 2°55.751 20.9383 0.014972 0.078019 -2.871232
2007-05-04 07:44:01 51°13.716 2°55.754 20.8997 0.014972 0.078019 -2.871232
2007-05-04 07:44:06 51°13.717 2°55.757 20.8616 0.014972 0.078019 -2.871232
2007-05-04 07:44:11 51°13.718 2°55.759 20.8596 0.014972 0.078019 -2.871232
2007-05-04 07:44:16 51°13.718 2°55.76 20.8976 0.014972 0.07802 -2.871232
2007-05-04 07:44:21 51°13.717 2°55.76 20.7682 0.014972 0.078021 -2.871232
2007-05-04 07:44:26 51°13.716 2°55.759 20.8753 0.014972 0.078022 -2.871232
2007-05-04 07:44:31 51°13.715 2°55.757 20.8991 0.014972 0.078022 -2.871232
2007-05-04 07:44:36 51°13.714 2°55.755 20.9147 0.014972 0.078024 -2.871232
2007-05-04 07:44:41 51°13.712 2°55.752 20.9263 0.014972 0.078025 -2.871232
2007-05-04 07:44:46 51°13.711 2°55.749 20.9351 0.014972 0.078025 -2.871232
2007-05-04 07:44:51 51°13.709 2°55.746 20.9182 0.014972 0.078026 -2.871232
2007-05-04 07:44:56 51°13.707 2°55.743 20.9207 0.014972 0.078027 -2.871232
2007-05-04 07:45:01 51°13.706 2°55.741 20.92 0.014972 0.078027 -2.871232
2007-05-04 07:45:06 51°13.705 2°55.738 20.9225 0.014972 0.078027 -2.871232
2007-05-04 07:45:11 51°13.703 2°55.736 20.9236 0.014972 0.078028 -2.871232
2007-05-04 07:45:16 51°13.702 2°55.734 20.9241 0.014972 0.078029 -2.871232
2007-05-04 07:45:21 51°13.701 2°55.733 20.9453 0.014972 0.078031 -2.871232
2007-05-04 07:45:26 51°13.7 2°55.733 20.9632 0.014972 0.078032 -2.871232
2007-05-04 07:45:31 51°13.7 2°55.734 20.9826 0.014972 0.078032 -2.871232
2007-05-04 07:45:36 51°13.701 2°55.736 20.9832 0.014972 0.078033 -2.871232
2007-05-04 07:45:41 51°13.703 2°55.739 20.9796 0.014972 0.078034 -2.871232
2007-05-04 07:45:46 51°13.704 2°55.742 20.9774 0.014972 0.078035 -2.871232
2007-05-04 07:45:51 51°13.707 2°55.744 20.9606 0.014972 0.078038 -2.871232
2007-05-04 07:45:56 51°13.709 2°55.747 20.9472 0.014972 0.078039 -2.871232
2007-05-04 07:46:01 51°13.711 2°55.749 20.9247 0.014972 0.078039 -2.871232
2007-05-04 07:46:06 51°13.713 2°55.751 20.8962 0.014972 0.07804 -2.871232
2007-05-04 07:46:11 51°13.715 2°55.753 20.8409 0.014972 0.078042 -2.871232
2007-05-04 07:46:16 51°13.716 2°55.754 20.8278 0.014972 0.078043 -2.871232
2007-05-04 07:46:21 51°13.716 2°55.755 20.8688 0.014972 0.078044 -2.871232
2007-05-04 07:46:26 51°13.715 2°55.755 20.8174 0.014972 0.078047 -2.871232
2007-05-04 07:46:31 51°13.713 2°55.754 20.8633 0.014972 0.078047 -2.871232
2007-05-04 07:46:36 51°13.711 2°55.753 20.8739 0.014972 0.078048 -2.871232
2007-05-04 07:46:41 51°13.708 2°55.752 20.9052 0.014972 0.07805 -2.871232
2007-05-04 07:46:46 51°13.706 2°55.75 20.9065 0.014972 0.07805 -2.871232
2007-05-04 07:46:51 51°13.704 2°55.749 20.907 0.014972 0.078053 -2.871232
2007-05-04 07:46:56 51°13.701 2°55.747 20.9057 0.014972 0.078054 -2.871232
2007-05-04 07:47:01 51°13.699 2°55.745 20.907 0.014972 0.078054 -2.871232
2007-05-04 07:47:06 51°13.697 2°55.744 20.9046 0.014972 0.078055 -2.871232
2007-05-04 07:47:11 51°13.695 2°55.743 20.9031 0.014972 0.078056 -2.871232
2007-05-04 07:47:16 51°13.693 2°55.742 20.9019 0.014972 0.078057 -2.871232
2007-05-04 07:47:21 51°13.692 2°55.741 20.9025 0.014972 0.07806 -2.871232
2007-05-04 07:47:26 51°13.69 2°55.74 20.9022 0.014972 0.078061 -2.871232
2007-05-04 07:47:31 51°13.689 2°55.74 20.9049 0.014972 0.078061 -2.871232
2007-05-04 07:47:36 51°13.688 2°55.74 20.9063 0.014972 0.078062 -2.871232
2007-05-04 07:47:41 51°13.687 2°55.739 20.9088 0.014972 0.078063 -2.871232
2007-05-04 07:47:46 51°13.687 2°55.74 20.9086 0.014972 0.078064 -2.871232
2007-05-04 07:47:51 51°13.687 2°55.74 20.9091 0.014972 0.078065 -2.871232
2007-05-04 07:47:56 51°13.687 2°55.74 20.9088 0.014972 0.078068 -2.871232
2007-05-04 07:48:01 51°13.687 2°55.74 20.9098 0.014972 0.078068 -2.871232
2007-05-04 07:48:06 51°13.687 2°55.74 20.9079 0.014972 0.078068 -2.871232
2007-05-04 07:48:11 51°13.687 2°55.74 20.9082 0.014972 0.07807 -2.871232
2007-05-04 07:48:16 51°13.688 2°55.74 20.9096 0.014972 0.07807 -2.871232
2007-05-04 07:48:21 51°13.689 2°55.74 20.9104 0.014972 0.078072 -2.871232
2007-05-04 07:48:26 51°13.689 2°55.74 20.9116 0.014972 0.078074 -2.871232
2007-05-04 07:48:31 51°13.691 2°55.739 20.9181 0.014972 0.078074 -2.871232
2007-05-04 07:48:36 51°13.692 2°55.739 20.9298 0.014972 0.078075 -2.871232
2007-05-04 07:48:41 51°13.694 2°55.737 20.9326 0.014972 0.078076 -2.871232
2007-05-04 07:48:46 51°13.696 2°55.736 20.9313 0.014972 0.078077 -2.871232
2007-05-04 07:48:51 51°13.698 2°55.734 20.9289 0.014972 0.078078 -2.871232
2007-05-04 07:48:56 51°13.701 2°55.733 20.9268 0.014972 0.078078 -2.871232
2007-05-04 07:49:01 51°13.705 2°55.731 20.9244 0.014972 0.078078 -2.871232
2007-05-04 07:49:06 51°13.708 2°55.729 20.9234 0.014972 0.078079 -2.871232
2007-05-04 07:49:11 51°13.712 2°55.727 20.9218 0.014972 0.078081 -2.871232
2007-05-04 07:49:16 51°13.716 2°55.724 20.9191 0.014972 0.078082 -2.871232
2007-05-04 07:49:21 51°13.721 2°55.721 20.9185 0.014972 0.078082 -2.871232
2007-05-04 07:49:26 51°13.725 2°55.717 20.9135 0.014972 0.078083 -2.871232
2007-05-04 07:49:31 51°13.73 2°55.713 20.9096 0.014972 0.078083 -2.871232
2007-05-04 07:49:36 51°13.734 2°55.709 20.9047 0.014972 0.078084 -2.871232
2007-05-04 07:49:41 51°13.739 2°55.704 20.8997 0.014972 0.078085 -2.871232
2007-05-04 07:49:46 51°13.745 2°55.699 20.8979 0.014972 0.078086 -2.871232
2007-05-04 07:49:51 51°13.75 2°55.694 20.8891 0.014972 0.078087 -2.871232
2007-05-04 07:49:56 51°13.756 2°55.689 20.8766 0.014972 0.078087 -2.871232
2007-05-04 07:50:01 51°13.762 2°55.683 20.8624 0.014972 0.078087 -2.871232
2007-05-04 07:50:06 51°13.769 2°55.678 20.8547 0.014972 0.07809 -2.871232
2007-05-04 07:50:11 51°13.776 2°55.673 20.8496 0.014972 0.07809 -2.871232
2007-05-04 07:50:16 51°13.783 2°55.667 20.8463 0.014972 0.078091 -2.871232
2007-05-04 07:50:21 51°13.79 2°55.662 20.8498 0.014972 0.078092 -2.871232
2007-05-04 07:50:26 51°13.797 2°55.656 20.8588 0.014972 0.078093 -2.871232
2007-05-04 07:50:31 51°13.805 2°55.652 20.8589 0.014972 0.078093 -2.871232
2007-05-04 07:50:36 51°13.813 2°55.646 20.8593 0.014972 0.078094 -2.871232
2007-05-04 07:50:41 51°13.82 2°55.641 20.8619 0.014972 0.078096 -2.871232
2007-05-04 07:50:46 51°13.829 2°55.635 20.8705 0.014972 0.078097 -2.871232
2007-05-04 07:50:51 51°13.837 2°55.628 20.8732 0.014972 0.078098 -2.871232
2007-05-04 07:50:56 51°13.846 2°55.622 20.8755 0.014972 0.078099 -2.871232
2007-05-04 07:51:01 51°13.856 2°55.616 20.876 0.014972 0.078099 -2.871232
2007-05-04 07:51:06 51°13.865 2°55.609 20.8649 0.014972 0.0781 -2.871232
2007-05-04 07:51:11 51°13.875 2°55.602 20.8385 0.014972 0.078101 -2.871232
2007-05-04 07:51:16 51°13.885 2°55.594 20.8433 0.014972 0.078103 -2.871232
2007-05-04 07:51:21 51°13.895 2°55.587 20.8555 0.014972 0.078104 -2.871232
2007-05-04 07:51:26 51°13.905 2°55.579 20.8136 0.014972 0.078105 -2.871232
2007-05-04 07:51:31 51°13.915 2°55.571 20.7343 0.014972 0.078105 -2.871232
2007-05-04 07:51:36 51°13.925 2°55.564 20.8548 0.014972 0.078107 -2.871232
2007-05-04 07:51:41 51°13.936 2°55.556 20.8854 0.014972 0.078108 -2.871232
2007-05-04 07:51:46 51°13.946 2°55.548 20.8272 0.014972 0.07811 -2.871232
2007-05-04 07:51:51 51°13.958 2°55.542 20.8521 0.014972 0.078111 -2.871232
2007-05-04 07:51:56 51°13.969 2°55.535 20.8907 0.014972 0.078113 -2.871232
2007-05-04 07:52:01 51°13.981 2°55.527 20.9252 0.014972 0.078113 -2.871232
2007-05-04 07:52:06 51°13.992 2°55.519 20.8166 0.014972 0.078114 -2.871232
2007-05-04 07:52:11 51°14.003 2°55.51 20.7554 0.014972 0.078117 -2.871232
2007-05-04 07:52:16 51°14.015 2°55.502 20.7239 0.014972 0.078118 -2.871232
2007-05-04 07:52:21 51°14.026 2°55.493 20.7544 0.014972 0.07812 -2.871232
2007-05-04 07:52:26 51°14.038 2°55.485 20.7418 0.014972 0.078121 -2.871232
2007-05-04 07:52:31 51°14.049 2°55.476 20.6653 0.014972 0.078121 -2.871232
2007-05-04 07:52:36 51°14.061 2°55.469 20.6138 0.014972 0.078124 -2.871232
2007-05-04 07:52:41 51°14.073 2°55.461 20.628 0.014972 0.078126 -2.871232
2007-05-04 07:52:46 51°14.085 2°55.454 20.7138 0.014972 0.078127 -2.871232
2007-05-04 07:52:51 51°14.097 2°55.446 20.7619 0.014972 0.078129 -2.871232
2007-05-04 07:52:56 51°14.109 2°55.438 20.7529 0.014972 0.078132 -2.871232
2007-05-04 07:53:01 51°14.121 2°55.429 20.7397 0.014972 0.078132 -2.871232
2007-05-04 07:53:06 51°14.134 2°55.421 20.7407 0.014972 0.078134 -2.871232
2007-05-04 07:53:11 51°14.146 2°55.412 20.7441 0.014972 0.078136 -2.871232
2007-05-04 07:53:16 51°14.158 2°55.403 20.8053 0.014972 0.078138 -2.871232
2007-05-04 07:53:21 51°14.171 2°55.393 20.8785 0.014972 0.078141 -2.871232
2007-05-04 07:53:26 51°14.183 2°55.383 20.8969 0.014972 0.078143 -2.871232
2007-05-04 07:53:31 51°14.195 2°55.371 20.8833 0.014972 0.078143 -2.871232
2007-05-04 07:53:36 51°14.206 2°55.358 20.8216 0.014972 0.078146 -2.871232
2007-05-04 07:53:41 51°14.218 2°55.345 20.8929 0.014972 0.078148 -2.871232
2007-05-04 07:53:46 51°14.229 2°55.332 20.9337 0.014972 0.078152 -2.871232
2007-05-04 07:53:51 51°14.239 2°55.317 20.8781 0.014972 0.078154 -2.871232
2007-05-04 07:53:56 51°14.248 2°55.301 20.8556 0.014972 0.078156 -2.871232
2007-05-04 07:54:01 51°14.258 2°55.284 20.7903 0.014972 0.078156 -2.871232
2007-05-04 07:54:06 51°14.267 2°55.267 20.7179 0.014972 0.078159 -2.871232
2007-05-04 07:54:11 51°14.276 2°55.25 20.8324 0.014972 0.078162 -2.871232
2007-05-04 07:54:16 51°14.285 2°55.232 20.8536 0.014972 0.078164 -2.871232
2007-05-04 07:54:21 51°14.293 2°55.214 20.7984 0.014972 0.078168 -2.871232
2007-05-04 07:54:26 51°14.302 2°55.195 20.8366 0.014972 0.078169 -2.871232
2007-05-04 07:54:31 51°14.31 2°55.176 20.8158 0.014972 0.078169 -2.871232
2007-05-04 07:54:36 51°14.319 2°55.155 20.814 0.014972 0.078171 -2.871232
2007-05-04 07:54:41 51°14.327 2°55.134 20.8441 0.014972 0.078175 -2.871232
2007-05-04 07:54:46 51°14.335 2°55.113 20.7623 0.014972 0.078177 -2.871232
2007-05-04 07:54:51 51°14.343 2°55.092 20.7252 0.014972 0.078179 -2.871232
2007-05-04 07:54:56 51°14.351 2°55.07 20.7939 0.014972 0.078183 -2.871232
2007-05-04 07:55:01 51°14.36 2°55.047 20.7817 0.014972 0.078183 -2.871232
2007-05-04 07:55:06 51°14.367 2°55.024 20.8219 0.014972 0.078185 -2.871232
2007-05-04 07:55:11 51°14.375 2°55.001 20.6704 0.014972 0.078188 -2.871232
2007-05-04 07:55:16 51°14.382 2°54.976 20.7219 0.014972 0.07819 -2.871232
2007-05-04 07:55:21 51°14.389 2°54.952 20.688 0.014972 0.07819 -2.871232
2007-05-04 07:55:26 51°14.397 2°54.927 20.7467 0.014972 0.078181 -2.871232
2007-05-04 07:55:31 51°14.404 2°54.902 20.6325 0.014972 0.078181 -2.871232
2007-05-04 07:55:36 51°14.412 2°54.877 20.6913 0.014972 0.078179 -2.871232
2007-05-04 07:55:41 51°14.42 2°54.85 20.7769 0.014972 0.078183 -2.871232
2007-05-04 07:55:46 51°14.428 2°54.824 20.686 0.014972 0.078177 -2.871232
2007-05-04 07:55:51 51°14.436 2°54.798 20.7126 0.014972 0.078183 -2.871232
2007-05-04 07:55:56 51°14.444 2°54.771 20.6833 0.014972 0.078192 -2.871232
2007-05-04 07:56:01 51°14.451 2°54.744 20.0683 0.014972 0.078192 -2.871232
2007-05-04 07:56:06 51°14.459 2°54.717 17.2608 0.014972 0.078199 -2.871232
2007-05-04 07:56:11 51°14.466 2°54.69 15.8275 0.014869 0.07774 -2.871232
2007-05-04 07:56:16 51°14.473 2°54.661 15.2137 0.014972 0.078278 -2.871232
2007-05-04 07:56:21 51°14.479 2°54.632 14.9397 3.588817 23.286042 -2.871232
2007-05-04 07:56:26 51°14.484 2°54.603 14.7116 3.340711 21.597818 -2.871232
2007-05-04 07:56:31 51°14.489 2°54.574 14.6623 3.340711 21.597818 -2.871232
2007-05-04 07:56:36 51°14.492 2°54.544 14.5285 3.427075 23.029778 -2.871232
2007-05-04 07:56:41 51°14.495 2°54.514 14.4931 3.723523 25.762958 -2.871232
2007-05-04 07:56:46 51°14.496 2°54.483 14.4613 3.772862 27.003339 -2.871232
2007-05-04 07:56:51 51°14.495 2°54.452 14.417 3.818679 28.072663 -2.871232
2007-05-04 07:56:56 51°14.493 2°54.422 14.3913 3.840661 28.796195 -2.871232
2007-05-04 07:57:01 51°14.49 2°54.391 14.3603 3.840661 28.796195 -2.871232
2007-05-04 07:57:06 51°14.485 2°54.361 14.3763 3.842117 29.115565 -2.871232
2007-05-04 07:57:11 51°14.479 2°54.331 14.3523 3.826575 29.203573 -2.871232
2007-05-04 07:57:16 51°14.472 2°54.302 14.3349 3.81041 29.200026 -2.871232
2007-05-04 07:57:21 51°14.464 2°54.272 14.3076 3.791447 29.160941 -2.871232
2007-05-04 07:57:26 51°14.456 2°54.244 14.2924 3.794454 29.248624 -2.871232
2007-05-04 07:57:31 51°14.447 2°54.216 14.2828 3.794454 29.248624 -2.871232
2007-05-04 07:57:36 51°14.438 2°54.189 14.2876 3.785231 29.218619 -2.871232
2007-05-04 07:57:41 51°14.428 2°54.163 14.2545 3.772071 29.141644 -2.871232
2007-05-04 07:57:46 51°14.419 2°54.135 14.2512 3.774144 29.191522 -2.871232
2007-05-04 07:57:51 51°14.408 2°54.109 14.2758 3.758498 29.081884 -2.871232
2007-05-04 07:57:56 51°14.4 2°54.08 14.2562 3.764094 29.154901 -2.871232
2007-05-04 07:58:01 51°14.388 2°54.054 14.3357 3.764094 29.154901 -2.871232
2007-05-04 07:58:06 51°14.38 2°54.026 14.4476 3.746582 29.025777 -2.871232
2007-05-04 07:58:11 51°14.371 2°53.998 14.4767 3.761918 29.170956 -2.871232
2007-05-04 07:58:16 51°14.361 2°53.971 14.3262 3.757048 29.151323 -2.871232
2007-05-04 07:58:21 51°14.353 2°53.942 14.2511 3.763577 29.212225 -2.871232
2007-05-04 07:58:26 51°14.343 2°53.915 14.225 3.755183 29.142469 -2.871232
2007-05-04 07:58:31 51°14.333 2°53.886 14.2356 3.755183 29.142469 -2.871232
2007-05-04 07:58:36 51°14.325 2°53.858 14.2345 3.7414 28.911549 -2.871232
2007-05-04 07:58:41 51°14.315 2°53.83 14.2174 3.743055 28.786198 -2.871232
2007-05-04 07:58:46 51°14.306 2°53.802 14.2183 3.745233 28.878329 -2.871232
2007-05-04 07:58:51 51°14.296 2°53.773 14.2055 3.760673 29.092093 -2.871232
2007-05-04 07:58:56 51°14.287 2°53.745 14.2044 3.762333 29.181101 -2.871232
2007-05-04 07:59:01 51°14.278 2°53.716 14.2458 3.762333 29.181101 -2.871232
2007-05-04 07:59:06 51°14.269 2°53.688 14.2024 3.763059 29.223572 -2.871232
2007-05-04 07:59:11 51°14.259 2°53.66 14.2196 3.758292 29.204185 -2.871232
2007-05-04 07:59:16 51°14.25 2°53.631 14.1817 3.757671 29.21333 -2.871232
2007-05-04 07:59:21 51°14.241 2°53.603 14.1961 3.730627 28.992269 -2.871232
2007-05-04 07:59:26 51°14.229 2°53.576 14.1857 3.749071 29.158808 -2.871232
2007-05-04 07:59:31 51°14.222 2°53.546 14.2061 3.749071 29.158808 -2.871232
2007-05-04 07:59:36 51°14.209 2°53.52 14.1815 3.74876 29.156121 -2.871232
2007-05-04 07:59:41 51°14.201 2°53.491 14.1927 3.748553 29.158286 -2.871232
2007-05-04 07:59:46 51°14.188 2°53.465 14.1978 3.749589 29.173179 -2.871232
2007-05-04 07:59:51 51°14.178 2°53.437 14.1706 3.73529 29.061429 -2.871232
2007-05-04 07:59:56 51°14.167 2°53.41 14.1736 3.744408 29.145534 -2.871232
2007-05-04 08:00:01 51°14.155 2°53.383 14.1637 3.744408 29.145534 -2.871232
2007-05-04 08:00:06 51°14.144 2°53.356 14.1969 3.753009 29.222572 -2.871232
2007-05-04 08:00:11 51°14.131 2°53.331 14.1617 3.75218 29.220691 -2.871232
2007-05-04 08:00:16 51°14.121 2°53.302 14.2005 3.751662 29.218854 -2.871232
2007-05-04 08:00:21 51°14.108 2°53.277 14.187 3.754252 29.244584 -2.871232
2007-05-04 08:00:26 51°14.098 2°53.248 14.1819 3.753527 29.24559 -2.871232
2007-05-04 08:00:31 51°14.085 2°53.222 14.175 3.753527 29.24559 -2.871232
2007-05-04 08:00:36 51°14.075 2°53.194 14.1752 3.748346 29.204046 -2.871232
2007-05-04 08:00:41 51°14.063 2°53.168 14.1839 3.750833 29.227562 -2.871232
2007-05-04 08:00:46 51°14.053 2°53.139 14.1899 3.736223 29.101097 -2.871232
2007-05-04 08:00:51 51°14.04 2°53.112 14.1765 3.748035 29.194742 -2.871232
2007-05-04 08:00:56 51°14.03 2°53.084 14.1648 3.758708 29.289789 -2.871232
2007-05-04 08:01:01 51°14.018 2°53.058 14.1754 3.758708 29.289789 -2.871232
2007-05-04 08:01:06 51°14.007 2°53.03 14.1591 3.764718 29.345829 -2.871232
2007-05-04 08:01:11 51°13.995 2°53.003 14.19 3.764511 29.346028 -2.871232
2007-05-04 08:01:16 51°13.983 2°52.975 14.1654 3.763993 29.342869 -2.871232
2007-05-04 08:01:21 51°13.972 2°52.948 14.1682 3.763786 29.342403 -2.871232
2007-05-04 08:01:26 51°13.961 2°52.921 14.1798 3.763682 29.3435 -2.871232
2007-05-04 08:01:31 51°13.95 2°52.894 14.1605 3.763682 29.3435 -2.871232
2007-05-04 08:01:36 51°13.938 2°52.866 14.1742 3.763579 29.345927 -2.871232
2007-05-04 08:01:41 51°13.927 2°52.838 14.1774 3.763268 29.345893 -2.871232
2007-05-04 08:01:46 51°13.916 2°52.81 14.1651 3.76275 29.340073 -2.871232
2007-05-04 08:01:51 51°13.905 2°52.782 14.1502 3.76275 29.344064 -2.871232
2007-05-04 08:01:56 51°13.894 2°52.754 14.1729 3.762439 29.3427 -2.871232
2007-05-04 08:02:01 51°13.884 2°52.726 14.1538 3.762439 29.3427 -2.871232
2007-05-04 08:02:06 51°13.872 2°52.699 14.1739 3.762335 29.343132 -2.871232
2007-05-04 08:02:11 51°13.863 2°52.669 14.2767 3.762025 29.341768 -2.871232
2007-05-04 08:02:16 51°13.85 2°52.644 14.1769 3.761714 29.339073 -2.871232
2007-05-04 08:02:21 51°13.839 2°52.614 14.1672 3.761921 29.342865 -2.871232
2007-05-04 08:02:26 51°13.829 2°52.585 14.1688 3.76161 29.338175 -2.871232
2007-05-04 08:02:31 51°13.817 2°52.56 14.1776 3.76161 29.338175 -2.871232
2007-05-04 08:02:36 51°13.806 2°52.532 14.1419 3.761714 29.335748 -2.871232
2007-05-04 08:02:41 51°13.796 2°52.501 14.1093 3.761403 29.32973 -2.871232
2007-05-04 08:02:46 51°13.787 2°52.472 14.1058 3.760677 29.308166 -2.871232
2007-05-04 08:02:51 51°13.776 2°52.446 14.116 3.761506 29.317338 -2.871232
2007-05-04 08:02:56 51°13.766 2°52.417 14.1227 3.762128 29.328039 -2.871232
2007-05-04 08:03:01 51°13.756 2°52.388 14.1342 3.762128 29.328039 -2.871232
2007-05-04 08:03:06 51°13.744 2°52.361 14.1429 3.734047 29.085563 -2.871232
2007-05-04 08:03:11 51°13.733 2°52.334 14.1428 3.535563 27.374358 -2.871232
2007-05-04 08:03:16 51°13.721 2°52.308 14.1423 3.277853 25.190449 -2.871232
2007-05-04 08:03:21 51°13.711 2°52.279 14.1483 3.432834 26.523377 -2.871232
2007-05-04 08:03:26 51°13.699 2°52.252 14.156 3.41078 26.341945 -2.871232
2007-05-04 08:03:31 51°13.688 2°52.225 14.1469 3.41078 26.341945 -2.871232
2007-05-04 08:03:36 51°13.676 2°52.198 14.1551 3.486578 26.991017 -2.871232
2007-05-04 08:03:41 51°13.665 2°52.17 14.1528 3.507186 27.166002 -2.871232
2007-05-04 08:03:46 51°13.654 2°52.143 14.1581 3.568603 27.691979 -2.871232
2007-05-04 08:03:51 51°13.643 2°52.115 14.1396 3.640078 28.305369 -2.871232
2007-05-04 08:03:56 51°13.632 2°52.087 14.1538 3.654167 28.424413 -2.871232
2007-05-04 08:04:01 51°13.62 2°52.061 14.1461 3.654167 28.424413 -2.871232
2007-05-04 08:04:06 51°13.609 2°52.032 14.1334 3.566221 27.664582 -2.871232
2007-05-04 08:04:11 51°13.598 2°52.004 14.1483 3.53867 27.426483 -2.871232
2007-05-04 08:04:16 51°13.587 2°51.976 14.1425 3.607239 28.016456 -2.871232
2007-05-04 08:04:21 51°13.578 2°51.947 14.1498 3.624642 28.167098 -2.871232
2007-05-04 08:04:26 51°13.565 2°51.92 14.1717 3.681414 28.660448 -2.871232
2007-05-04 08:04:31 51°13.557 2°51.89 14.1498 3.681414 28.660448 -2.871232
2007-05-04 08:04:36 51°13.544 2°51.864 14.1705 3.716019 28.960444 -2.871232
2007-05-04 08:04:41 51°13.534 2°51.834 14.1539 3.707937 28.893118 -2.871232
2007-05-04 08:04:46 51°13.523 2°51.807 14.1552 3.727209 29.058653 -2.871232
2007-05-04 08:04:51 51°13.512 2°51.779 14.1501 3.727105 29.058415 -2.871232
2007-05-04 08:04:56 51°13.501 2°51.751 14.1465 3.741922 29.1848 -2.871232
2007-05-04 08:05:01 51°13.49 2°51.723 14.1527 3.741922 29.1848 -2.871232
2007-05-04 08:05:06 51°13.479 2°51.694 14.1572 3.740575 29.169819 -2.871232
2007-05-04 08:05:11 51°13.468 2°51.666 14.1579 3.729592 29.072041 -2.871232
2007-05-04 08:05:16 51°13.457 2°51.638 14.1517 3.735187 29.120499 -2.871232
2007-05-04 08:05:21 51°13.446 2°51.61 14.1566 3.74959 29.247277 -2.871232
2007-05-04 08:05:26 51°13.436 2°51.582 14.1565 3.748554 29.242276 -2.871232
2007-05-04 08:05:31 51°13.425 2°51.554 14.1617 3.748554 29.242276 -2.871232
2007-05-04 08:05:36 51°13.415 2°51.525 14.1624 3.747103 29.230365 -2.871232
2007-05-04 08:05:41 51°13.404 2°51.496 14.163 3.732493 29.103766 -2.871232
2007-05-04 08:05:46 51°13.392 2°51.469 14.162 3.736223 29.134099 -2.871232
2007-05-04 08:05:51 51°13.382 2°51.44 14.1632 3.74358 29.197181 -2.871232
2007-05-04 08:05:56 51°13.371 2°51.413 14.1731 3.746896 29.224591 -2.871232
2007-05-04 08:06:01 51°13.359 2°51.385 14.1802 3.746896 29.224591 -2.871232
2007-05-04 08:06:06 51°13.349 2°51.356 14.1794 3.736327 29.131693 -2.871232
2007-05-04 08:06:11 51°13.338 2°51.328 14.1816 3.748865 29.239664 -2.871232
2007-05-04 08:06:16 51°13.327 2°51.299 14.1938 3.747103 29.223736 -2.871232
2007-05-04 08:06:21 51°13.316 2°51.271 14.1837 3.73498 29.118704 -2.871232
2007-05-04 08:06:26 51°13.306 2°51.242 14.1756 3.732079 29.090937 -2.871232
2007-05-04 08:06:31 51°13.295 2°51.213 14.1905 3.732079 29.090937 -2.871232
2007-05-04 08:06:36 51°13.285 2°51.184 14.2076 3.736741 29.127356 -2.871232
2007-05-04 08:06:41 51°13.275 2°51.154 14.2036 3.711149 28.901906 -2.871232
2007-05-04 08:06:46 51°13.264 2°51.126 14.1991 3.726172 29.030584 -2.871232
2007-05-04 08:06:51 51°13.254 2°51.097 14.2297 3.759641 29.319117 -2.871232
2007-05-04 08:06:56 51°13.243 2°51.068 14.2068 3.762232 29.341569 -2.871232
2007-05-04 08:07:01 51°13.232 2°51.038 14.2358 3.762232 29.341569 -2.871232
2007-05-04 08:07:06 51°13.221 2°51.01 14.2297 3.762853 29.344962 -2.871232
2007-05-04 08:07:11 51°13.21 2°50.982 14.2262 3.76275 29.339408 -2.871232
2007-05-04 08:07:16 51°13.199 2°50.952 14.2219 3.76275 29.337414 -2.871232
2007-05-04 08:07:21 51°13.189 2°50.923 14.2145 3.762024 29.329135 -2.871232
2007-05-04 08:07:26 51°13.177 2°50.895 14.2076 3.76275 29.330767 -2.871232
2007-05-04 08:07:31 51°13.167 2°50.865 14.2216 3.76275 29.330767 -2.871232
2007-05-04 08:07:36 51°13.157 2°50.835 14.2198 3.762128 29.320731 -2.871232
2007-05-04 08:07:41 51°13.145 2°50.808 14.2109 3.761299 29.306913 -2.871232
2007-05-04 08:07:46 51°13.134 2°50.778 14.2284 3.755392 29.253126 -2.871232
2007-05-04 08:07:51 51°13.125 2°50.748 14.2201 3.759123 29.287408 -2.871232
2007-05-04 08:07:56 51°13.113 2°50.721 14.2343 3.757879 29.279958 -2.871232
2007-05-04 08:08:01 51°13.104 2°50.69 14.2206 3.757879 29.279958 -2.871232
2007-05-04 08:08:06 51°13.092 2°50.661 14.2174 3.760263 29.299931 -2.871232
2007-05-04 08:08:11 51°13.083 2°50.632 14.2155 3.757465 29.273054 -2.871232
2007-05-04 08:08:16 51°13.071 2°50.603 14.2044 3.761817 29.310735 -2.871232
2007-05-04 08:08:21 51°13.061 2°50.572 14.213 3.756428 29.262095 -2.871232
2007-05-04 08:08:26 51°13.05 2°50.545 14.2255 3.753838 29.237686 -2.871232
2007-05-04 08:08:31 51°13.038 2°50.516 14.2299 3.753838 29.237686 -2.871232
2007-05-04 08:08:36 51°13.029 2°50.486 14.231 3.75332 29.231878 -2.871232
2007-05-04 08:08:41 51°13.017 2°50.458 14.209 3.75705 29.265489 -2.871232
2007-05-04 08:08:46 51°13.007 2°50.428 14.2292 3.756947 29.267243 -2.871232
2007-05-04 08:08:51 51°12.998 2°50.398 14.2236 3.752284 29.230191 -2.871232
2007-05-04 08:08:56 51°12.986 2°50.37 14.2149 3.761817 29.316046 -2.871232
2007-05-04 08:09:01 51°12.977 2°50.34 14.2189 3.761817 29.316046 -2.871232
2007-05-04 08:09:06 51°12.965 2°50.311 14.2304 3.762749 29.319474 -2.871232
2007-05-04 08:09:11 51°12.955 2°50.281 14.2282 3.762853 29.317052 -2.871232
2007-05-04 08:09:16 51°12.945 2°50.252 14.2167 3.762749 29.316819 -2.871232
2007-05-04 08:09:21 51°12.933 2°50.224 14.226 3.76161 29.304295 -2.871232
2007-05-04 08:09:26 51°12.925 2°50.193 14.2086 3.762542 29.312369 -2.871232
2007-05-04 08:09:31 51°12.913 2°50.165 14.2065 3.762542 29.312369 -2.871232
2007-05-04 08:09:36 51°12.904 2°50.134 14.2204 3.760988 29.300903 -2.871232
2007-05-04 08:09:41 51°12.893 2°50.105 14.2212 3.763371 29.321538 -2.871232
2007-05-04 08:09:46 51°12.884 2°50.075 14.2208 3.759848 29.292361 -2.871232
2007-05-04 08:09:51 51°12.872 2°50.047 14.2341 3.762957 29.321933 -2.871232
2007-05-04 08:09:56 51°12.862 2°50.017 14.2172 3.762335 29.318541 -2.871232
2007-05-04 08:10:01 51°12.852 2°49.988 14.2236 3.762335 29.318541 -2.871232
2007-05-04 08:10:06 51°12.84 2°49.96 14.2188 3.762439 29.320103 -2.871232
2007-05-04 08:10:11 51°12.83 2°49.929 14.2115 3.759641 29.294547 -2.871232
2007-05-04 08:10:16 51°12.819 2°49.901 14.2153 3.761299 29.30824 -2.871232
2007-05-04 08:10:21 51°12.809 2°49.871 14.2198 3.760263 29.299267 -2.871232
2007-05-04 08:10:26 51°12.798 2°49.841 14.2218 3.76047 29.298408 -2.871232
2007-05-04 08:10:31 51°12.787 2°49.812 14.2222 3.76047 29.298408 -2.871232
2007-05-04 08:10:36 51°12.777 2°49.782 14.2196 3.757983 29.276876 -2.871232
2007-05-04 08:10:41 51°12.766 2°49.754 14.2075 3.756947 29.268569 -2.871232
2007-05-04 08:10:46 51°12.756 2°49.724 14.2242 3.758605 29.284912 -2.871232
2007-05-04 08:10:51 51°12.744 2°49.696 14.2221 3.759019 29.288501 -2.871232
2007-05-04 08:10:56 51°12.734 2°49.666 14.2226 3.759123 29.290061 -2.871232
2007-05-04 08:11:01 51°12.723 2°49.638 14.2208 3.759123 29.290061 -2.871232
2007-05-04 08:11:06 51°12.715 2°49.607 14.2302 3.753113 29.237366 -2.871232
2007-05-04 08:11:11 51°12.702 2°49.58 14.2169 3.756532 29.267632 -2.871232
2007-05-04 08:11:16 51°12.693 2°49.549 14.22 3.754149 29.248323 -2.871232
2007-05-04 08:11:21 51°12.681 2°49.521 14.2259 3.755081 29.25706 -2.871232
2007-05-04 08:11:26 51°12.672 2°49.491 14.2411 3.755392 29.259089 -2.871232
2007-05-04 08:11:31 51°12.66 2°49.462 14.2347 3.755392 29.259089 -2.871232
2007-05-04 08:11:36 51°12.652 2°49.432 14.2354 3.756636 29.267866 -2.871232
2007-05-04 08:11:41 51°12.64 2°49.404 14.235 3.757361 29.273483 -2.871232
2007-05-04 08:11:46 51°12.631 2°49.374 14.2237 3.754978 29.254838 -2.871232
2007-05-04 08:11:51 51°12.619 2°49.346 14.2191 3.759123 29.290061 -2.871232
2007-05-04 08:11:56 51°12.609 2°49.317 14.2227 3.756428 29.265409 -2.871232
2007-05-04 08:12:01 51°12.598 2°49.289 14.2209 3.756428 29.265409 -2.871232
2007-05-04 08:12:06 51°12.589 2°49.259 14.213 3.753216 29.234291 -2.871232
2007-05-04 08:12:11 51°12.577 2°49.232 14.2186 3.755185 29.250007 -2.871232
2007-05-04 08:12:16 51°12.568 2°49.202 14.2153 3.756014 29.257183 -2.871232
2007-05-04 08:12:21 51°12.556 2°49.175 14.2124 3.755807 29.257376 -2.871232
2007-05-04 08:12:26 51°12.546 2°49.146 14.2127 3.75218 29.228632 -2.871232
2007-05-04 08:12:31 51°12.535 2°49.118 14.2179 3.75218 29.228632 -2.871232
2007-05-04 08:12:36 51°12.525 2°49.089 14.2192 3.756428 29.266072 -2.871232
2007-05-04 08:12:41 51°12.515 2°49.061 14.2195 3.755185 29.257294 -2.871232
2007-05-04 08:12:46 51°12.505 2°49.031 14.2159 3.756947 29.272546 -2.871232
2007-05-04 08:12:51 51°12.494 2°49.004 14.2164 3.755289 29.259517 -2.871232
2007-05-04 08:12:56 51°12.484 2°48.975 14.2234 3.755185 29.260608 -2.871232
2007-05-04 08:13:01 51°12.472 2°48.947 14.2184 3.755185 29.260608 -2.871232
2007-05-04 08:13:06 51°12.461 2°48.919 14.2176 3.754874 29.259242 -2.871232
2007-05-04 08:13:11 51°12.452 2°48.89 14.2151 3.75446 29.254328 -2.871232
2007-05-04 08:13:16 51°12.44 2°48.863 14.2198 3.754978 29.258151 -2.871232
2007-05-04 08:13:21 51°12.432 2°48.833 14.224 3.754356 29.25343 -2.871232
2007-05-04 08:13:26 51°12.421 2°48.805 14.226 3.754978 29.258151 -2.871232
2007-05-04 08:13:31 51°12.412 2°48.776 14.2301 3.754978 29.258151 -2.871232
2007-05-04 08:13:36 51°12.4 2°48.75 14.2301 3.753424 29.245356 -2.871232
2007-05-04 08:13:41 51°12.393 2°48.719 14.2251 3.753009 29.240443 -2.871232
2007-05-04 08:13:46 51°12.381 2°48.692 14.2355 3.753113 29.24134 -2.871232
2007-05-04 08:13:51 51°12.374 2°48.661 14.2311 3.753216 29.240912 -2.871232
2007-05-04 08:13:56 51°12.363 2°48.634 14.2247 3.752387 29.232412 -2.871232
2007-05-04 08:14:01 51°12.355 2°48.603 14.2272 3.752387 29.232412 -2.871232
2007-05-04 08:14:06 51°12.345 2°48.576 14.2223 3.751247 29.219898 -2.871232
2007-05-04 08:14:11 51°12.336 2°48.545 14.2196 3.751662 29.222162 -2.871232
2007-05-04 08:14:16 51°12.328 2°48.515 14.2214 3.753838 29.241659 -2.871232
2007-05-04 08:14:21 51°12.318 2°48.486 14.2197 3.75477 29.248407 -2.871232
2007-05-04 08:14:26 51°12.309 2°48.456 14.2162 3.752802 29.230703 -2.871232
2007-05-04 08:14:31 51°12.301 2°48.426 14.2209 3.752802 29.230703 -2.871232
2007-05-04 08:14:36 51°12.29 2°48.397 14.22 3.753423 29.237409 -2.871232
2007-05-04 08:14:41 51°12.284 2°48.365 14.2187 3.748968 29.199507 -2.871232
2007-05-04 08:14:46 51°12.272 2°48.338 14.2217 3.752595 29.234206 -2.871232
2007-05-04 08:14:51 51°12.265 2°48.307 14.222 3.750419 29.217355 -2.871232
2007-05-04 08:14:56 51°12.253 2°48.279 14.2231 3.752284 29.234163 -2.871232
2007-05-04 08:15:01 51°12.246 2°48.248 14.2249 3.752284 29.234163 -2.871232
2007-05-04 08:15:06 51°12.234 2°48.22 14.222 3.750729 29.221369 -2.871232
2007-05-04 08:15:11 51°12.226 2°48.189 14.2186 3.752076 29.233031 -2.871232
2007-05-04 08:15:16 51°12.217 2°48.159 14.2238 3.752387 29.236384 -2.871232
2007-05-04 08:15:21 51°12.207 2°48.131 14.2215 3.751144 29.224957 -2.871232
2007-05-04 08:15:26 51°12.199 2°48.1 14.2204 3.749071 29.205694 -2.871232
2007-05-04 08:15:31 51°12.189 2°48.07 14.2242 3.749071 29.205694 -2.871232
2007-05-04 08:15:36 51°12.18 2°48.039 14.2304 3.749797 29.211973 -2.871232
2007-05-04 08:15:41 51°12.17 2°48.011 14.2483 3.751869 29.229913 -2.871232
2007-05-04 08:15:46 51°12.162 2°47.981 14.2537 3.753734 29.24606 -2.871232
2007-05-04 08:15:51 51°12.15 2°47.953 14.2569 3.747517 29.192902 -2.871232
2007-05-04 08:15:56 51°12.143 2°47.922 14.2539 3.750004 29.21509 -2.871232
2007-05-04 08:16:01 51°12.132 2°47.893 14.2513 3.750004 29.21509 -2.871232
2007-05-04 08:16:06 51°12.124 2°47.862 14.2501 3.75446 29.253002 -2.871232
2007-05-04 08:16:11 51°12.113 2°47.834 14.2496 3.754563 29.251912 -2.871232
2007-05-04 08:16:16 51°12.105 2°47.804 14.2489 3.752076 29.223764 -2.871232
2007-05-04 08:16:21 51°12.095 2°47.774 14.2499 3.753423 29.229466 -2.871232
2007-05-04 08:16:26 51°12.085 2°47.745 14.2532 3.752387 29.21587 -2.871232
2007-05-04 08:16:31 51°12.076 2°47.715 14.2505 3.752387 29.21587 -2.871232
2007-05-04 08:16:36 51°12.066 2°47.686 14.2565 3.753527 29.224409 -2.871232
2007-05-04 08:16:41 51°12.058 2°47.655 14.2588 3.75218 29.212094 -2.871232
2007-05-04 08:16:46 51°12.048 2°47.626 14.2599 3.752387 29.213886 -2.871232
2007-05-04 08:16:51 51°12.039 2°47.596 14.2616 3.751765 29.209169 -2.871232
2007-05-04 08:16:56 51°12.031 2°47.566 14.2635 3.755185 29.238753 -2.871232
2007-05-04 08:17:01 51°12.023 2°47.535 14.264 3.755185 29.238753 -2.871232
2007-05-04 08:17:06 51°12.016 2°47.504 14.2698 3.753734 29.226202 -2.871232
2007-05-04 08:17:11 51°12.009 2°47.473 14.27 3.755392 29.239222 -2.871232
2007-05-04 08:17:16 51°12.003 2°47.442 14.2727 3.751869 29.20676 -2.871232
2007-05-04 08:17:21 51°11.996 2°47.41 14.2771 3.753009 29.215298 -2.871232